<- Previous Day | Today | Next Day ->

All Data for 08 December 2019

 

Time A - D Temp A - D Dew Point A - D Humidity A - D Pressure A - D Wind A - D Wind Dir Gust A - D Rain Rate A - D Rain Total
00:00 11.7 11.6 99 1006.0 31.1 WSW 31.1 3.0 0.0
00:01 11.7 11.6 99 1005.8 31.1 WSW 31.1 2.3 0.0
00:02 11.7 11.6 99 1006.0 28.2 S 31.1 2.3 0.1
00:03 11.7 11.6 99 1005.9 22.1 WSW 31.1 3.0 0.1
00:05 11.7 11.6 99 1006.1 22.1 S 31.1 1.5 0.1
00:06 11.7 11.6 99 1005.8 21.3 S 31.1 1.5 0.1
00:07 11.7 11.6 99 1005.9 32.7 S 32.7 1.5 0.2
00:08 11.7 11.6 99 1006.1 25.1 S 32.7 0.8 0.2
00:09 11.7 11.6 99 1005.9 28.9 WSW 32.7 0.8 0.2
00:10 11.7 11.6 99 1005.8 26.6 S 32.7 0.8 0.2
00:11 11.7 11.6 99 1005.9 23.5 S 32.7 0.8 0.2
00:12 11.7 11.6 99 1005.8 18.3 S 32.7 0.0 0.2
00:13 11.8 11.7 99 1005.7 25.9 S 32.7 0.0 0.2
00:14 11.8 11.7 99 1005.8 27.3 S 32.7 0.0 0.2
00:15 11.7 11.6 99 1005.9 22.8 S 32.7 0.0 0.2
00:16 11.8 11.7 99 1005.7 26.6 WSW 32.7 0.8 0.3
00:17 11.8 11.7 99 1006.0 26.6 WSW 30.4 0.8 0.3
00:19 11.8 11.7 99 1005.8 15.2 S 28.9 0.8 0.3
00:20 11.8 11.7 99 1005.7 26.6 S 27.3 0.8 0.3
00:21 11.8 11.7 99 1005.7 22.1 WSW 27.3 0.0 0.3
00:22 11.8 11.7 99 1005.7 22.1 WSW 27.3 0.0 0.3
00:23 11.8 11.7 99 1005.6 24.4 S 27.3 0.0 0.3
00:24 11.8 11.7 99 1005.8 19.7 S 26.6 0.0 0.3
00:25 11.8 11.7 99 1005.7 18.3 WSW 26.6 0.0 0.3
00:26 11.8 11.7 99 1005.7 20.6 S 26.6 0.0 0.3
00:27 11.9 11.8 99 1005.5 23.5 WSW 26.6 0.8 0.3
00:28 11.8 11.7 99 1005.9 15.9 WSW 26.6 0.8 0.3
00:29 11.9 11.8 99 1005.7 27.3 S 27.3 0.8 0.3
00:30 11.9 11.8 99 1005.5 17.4 WSW 29.8 1.5 0.4
00:31 11.9 11.8 99 1005.7 19.0 S 29.8 1.5 0.4
00:33 11.9 11.8 99 1005.3 25.1 WSW 29.8 0.8 0.4
00:34 11.9 11.8 99 1005.6 20.6 S 29.8 0.8 0.4
00:35 11.9 11.8 99 1005.8 22.1 S 29.8 0.8 0.4
00:36 11.9 11.8 99 1005.7 20.6 S 29.8 0.8 0.4
00:37 11.9 11.8 99 1005.5 28.2 WSW 29.8 0.8 0.4
00:38 11.9 11.8 99 1005.7 22.1 WSW 29.8 0.8 0.4
00:39 11.9 11.8 99 1005.5 19.7 WSW 29.8 0.8 0.4
00:40 12.0 11.9 99 1005.5 23.5 WSW 28.2 0.8 0.5
00:41 12.0 11.9 99 1005.3 23.5 SSW 28.2 0.8 0.5
00:42 11.9 11.8 99 1005.4 18.3 S 28.2 0.8 0.5
00:43 12.0 11.9 99 1005.5 21.3 S 28.2 0.8 0.5
00:44 12.0 11.9 99 1005.4 23.5 S 28.2 0.8 0.5
00:45 12.0 11.9 99 1005.5 22.1 S 28.2 0.0 0.5
00:47 12.0 11.9 99 1005.7 20.6 S 28.2 0.0 0.5
00:48 12.0 11.9 99 1005.4 32.7 WSW 32.7 0.0 0.6
00:49 12.0 11.9 99 1005.5 28.9 S 32.7 0.8 0.6
00:50 12.0 11.9 99 1005.3 21.3 S 32.7 0.8 0.6
00:51 12.0 11.9 99 1005.3 22.1 S 32.7 0.8 0.6
00:52 12.0 11.9 99 1005.4 16.8 S 32.7 0.8 0.6
00:53 12.0 11.9 99 1005.4 22.8 WSW 32.7 0.8 0.6
00:54 12.0 11.9 99 1005.4 17.4 S 32.7 0.0 0.6
00:55 12.0 11.9 99 1005.2 20.6 S 32.7 0.0 0.6
00:56 12.0 11.9 99 1005.2 22.8 S 32.7 0.0 0.6
00:57 12.0 11.9 99 1005.2 20.6 S 32.7 0.0 0.6
00:58 12.1 12.0 99 1005.2 25.1 WSW 32.7 0.0 0.6
00:59 12.1 12.0 99 1005.2 19.7 S 28.9 0.0 0.6
01:00 12.1 12.0 99 1005.0 19.7 SSW 25.9 0.8 0.6
01:02 12.1 12.0 99 1005.0 24.4 WSW 25.9 0.8 0.6
01:03 12.1 12.0 99 1005.3 17.4 S 25.9 0.8 0.6
01:04 12.1 12.0 99 1005.3 25.1 S 25.9 0.8 0.6
01:05 12.1 12.0 99 1005.5 23.5 S 25.1 0.0 0.6
01:06 12.1 12.0 99 1005.3 29.8 WSW 29.8 0.0 0.6
01:07 12.1 12.0 99 1005.3 24.4 WSW 29.8 0.0 0.6
01:08 12.1 12.0 99 1005.4 22.1 S 29.8 0.0 0.6
01:09 12.1 12.0 99 1005.3 26.6 WSW 29.8 0.0 0.6
01:10 12.1 12.0 99 1005.4 19.7 S 29.8 0.0 0.6
01:11 12.2 12.1 99 1005.4 22.8 WSW 29.8 0.0 0.6
01:12 12.1 12.0 99 1005.5 22.1 WSW 29.8 0.0 0.6
01:13 12.1 12.0 99 1005.5 19.0 WSW 29.8 0.0 0.6
01:14 12.2 12.1 99 1005.3 27.3 S 29.8 0.8 0.7
01:16 12.2 12.1 99 1005.2 22.1 WSW 29.8 0.8 0.7
01:17 12.2 12.1 99 1005.2 16.8 WSW 27.3 0.8 0.7
01:18 12.2 12.1 99 1005.3 24.4 WSW 27.3 0.8 0.8
01:19 12.2 12.1 99 1005.4 22.1 WSW 27.3 0.8 0.8
01:20 12.2 12.1 99 1005.3 15.2 S 27.3 0.8 0.8
01:21 12.2 12.1 99 1005.3 15.2 S 27.3 0.8 0.8
01:22 12.2 12.1 99 1005.2 13.0 WSW 27.3 0.8 0.8
01:23 12.2 12.1 99 1005.5 17.4 WSW 27.3 0.8 0.8
01:24 12.2 12.1 99 1005.3 21.3 S 27.3 0.0 0.8
01:25 12.2 12.1 99 1005.5 28.2 WSW 28.2 0.0 0.8
01:26 12.2 12.1 99 1005.3 22.8 WSW 28.2 0.8 0.8
01:27 12.2 12.1 99 1005.4 25.9 S 28.2 0.8 0.8
01:28 12.2 12.1 99 1005.4 25.9 WSW 28.2 0.8 0.9
01:30 12.2 12.1 99 1005.4 21.3 WSW 28.2 1.5 0.9
01:31 12.2 12.1 99 1005.3 17.4 WSW 28.2 0.8 0.9
01:32 12.2 12.1 99 1005.2 18.3 S 28.2 0.8 0.9
01:33 12.1 12.0 99 1005.2 18.3 WSW 28.2 0.8 0.9
01:34 12.1 12.0 99 1005.2 16.8 NW 28.2 0.0 0.9
01:35 12.1 12.0 99 1005.2 19.0 NW 25.9 0.0 0.9
01:36 12.1 12.0 99 1005.2 18.3 WSW 25.9 0.0 0.9
01:37 12.1 12.0 99 1005.3 19.7 WSW 25.9 0.0 0.9
01:38 12.1 12.0 99 1005.1 14.5 WSW 25.9 0.0 0.9
01:39 12.1 12.0 99 1005.2 19.7 WSW 25.1 0.8 0.9
01:40 12.1 12.0 99 1005.2 15.2 SW 21.3 0.8 0.9
01:41 12.1 12.0 99 1005.3 13.6 NW 19.7 0.8 0.9
01:42 12.1 12.0 99 1005.2 18.3 S 19.7 0.8 1.0
01:44 12.2 12.1 99 1005.1 19.7 W 24.4 0.8 1.0
01:45 12.2 12.1 99 1005.3 17.4 WNW 24.4 0.8 1.0
01:46 12.1 12.0 99 1005.2 16.8 W 24.4 0.8 1.0
01:47 12.2 12.1 99 1005.3 15.2 NW 24.4 0.8 1.0
01:48 12.2 12.1 99 1005.2 25.9 WSW 25.9 0.0 1.0
01:49 12.2 12.1 99 1005.2 25.9 WSW 25.9 0.0 1.0
01:50 12.1 12.0 99 1005.2 22.8 WSW 25.9 0.0 1.0
01:51 12.1 12.0 99 1005.1 22.8 WSW 25.9 0.0 1.0
01:52 12.1 12.0 99 1005.0 18.3 S 25.9 0.0 1.0
01:53 12.1 12.0 99 1005.2 19.0 S 25.9 0.0 1.0
01:54 12.1 12.0 99 1005.3 17.4 WSW 25.9 0.0 1.0
01:55 12.1 12.0 99 1005.4 24.4 WSW 25.9 0.0 1.0
01:56 12.0 11.9 99 1005.3 20.6 WSW 25.9 0.0 1.0
01:58 12.0 11.9 99 1005.4 23.5 WSW 25.9 0.0 1.0
01:59 12.0 11.9 99 1005.4 19.7 WSW 25.1 0.0 1.0
02:00 12.0 11.9 99 1005.3 17.4 NW 25.1 0.0 1.0
02:01 12.0 11.9 99 1005.4 17.4 S 25.1 0.0 1.0
02:02 12.0 11.9 99 1005.3 25.1 WSW 25.1 0.0 1.0
02:03 12.0 11.9 99 1005.3 22.1 WSW 25.1 0.0 1.0
02:04 12.0 11.9 99 1005.4 31.1 SSW 31.1 0.0 1.0
02:05 11.9 11.8 99 1005.1 25.1 NW 31.1 0.0 1.0
02:06 11.9 11.8 99 1005.4 22.8 S 31.1 0.0 1.0
02:07 11.8 11.7 99 1005.5 25.9 NW 31.1 0.0 1.0
02:08 11.8 11.7 99 1005.3 27.3 WSW 31.1 0.0 1.0
02:09 11.8 11.7 99 1005.2 26.6 WSW 31.1 0.0 1.0
02:10 11.8 11.7 99 1005.3 28.2 NW 31.1 0.0 1.0
02:11 11.7 11.6 99 1005.4 27.3 N 31.1 0.0 1.0
02:13 11.7 11.6 99 1005.3 21.3 WSW 31.1 0.0 1.0
02:14 11.7 11.6 99 1005.2 23.5 WNW 28.2 0.0 1.0
02:15 11.7 11.6 99 1005.3 19.0 WSW 28.2 0.0 1.0
02:16 11.7 11.6 99 1005.3 20.6 W 28.2 0.0 1.0
02:17 11.7 11.6 99 1005.3 20.6 W 28.2 0.0 1.0
02:18 11.6 11.5 99 1005.1 22.1 WSW 28.2 0.0 1.0
02:19 11.6 11.5 99 1005.2 21.3 NW 28.2 0.0 1.0
02:20 11.6 11.5 99 1005.1 28.9 W 28.9 0.0 1.0
02:21 11.6 11.5 99 1005.2 23.5 WSW 28.9 0.0 1.0
02:22 11.5 11.4 99 1005.2 19.7 WSW 28.9 0.0 1.0
02:23 11.6 11.5 99 1005.3 23.5 WSW 28.9 0.0 1.0
02:24 11.5 11.4 99 1005.2 18.3 WSW 28.9 0.0 1.0
02:25 11.6 11.5 99 1005.4 18.3 NW 28.9 0.0 1.0
02:27 11.5 11.4 99 1005.5 24.4 S 28.9 0.0 1.0
02:28 11.5 11.4 99 1005.2 22.8 WSW 28.9 0.0 1.0
02:29 11.4 11.3 99 1005.5 24.4 WSW 28.9 0.0 1.0
02:30 11.4 11.3 99 1005.2 25.1 WSW 25.1 0.0 1.0
02:31 11.4 11.3 99 1005.0 29.8 WSW 29.8 0.0 1.0
02:32 11.4 11.3 99 1005.3 31.1 W 31.1 0.0 1.0
02:33 11.3 11.2 99 1005.3 20.6 WSW 31.1 0.0 1.0
02:34 11.3 11.2 99 1005.2 23.5 W 31.1 0.0 1.0
02:35 11.3 11.2 99 1005.3 22.8 WSW 31.1 0.0 1.0
02:36 11.3 11.2 99 1005.4 25.1 WSW 31.1 0.0 1.0
02:37 11.2 11.1 99 1005.5 19.7 WSW 31.1 0.0 1.0
02:38 11.2 11.1 99 1005.3 27.3 SW 31.1 0.0 1.0
02:39 11.2 11.1 99 1005.4 25.9 NW 31.1 0.0 1.0
02:41 11.1 11.0 99 1005.3 18.3 N 31.1 0.0 1.0
02:42 11.1 11.0 99 1005.2 19.7 WSW 29.8 0.0 1.0
02:43 11.1 11.0 99 1005.4 22.1 WSW 29.8 0.0 1.0
02:44 11.0 10.9 99 1005.5 21.3 W 29.8 0.0 1.0
02:45 11.0 10.9 99 1005.5 21.3 W 29.8 0.0 1.0
02:46 11.0 10.9 99 1005.2 24.4 NW 29.8 0.0 1.0
02:47 11.0 10.9 99 1005.6 20.6 WSW 29.8 0.0 1.0
02:48 10.9 10.8 99 1005.6 19.7 WSW 29.8 0.0 1.0
02:49 10.9 10.8 99 1005.6 15.2 SW 29.8 0.0 1.0
02:50 10.9 10.8 99 1005.2 25.9 WNW 29.8 0.0 1.0
02:51 10.9 10.8 99 1005.5 25.9 WSW 25.9 0.0 1.0
02:52 10.9 10.8 99 1005.4 18.3 NW 25.9 0.0 1.0
02:54 10.8 10.7 99 1005.2 23.5 WSW 25.9 0.0 1.0
02:55 10.8 10.7 99 1005.5 21.3 WSW 25.9 0.0 1.0
02:56 10.8 10.7 99 1005.5 24.4 S 25.9 0.0 1.0
02:57 10.8 10.7 99 1005.3 23.5 WSW 25.9 0.0 1.0
02:58 10.8 10.7 99 1005.2 20.6 WSW 25.9 0.0 1.0
02:59 10.7 10.6 99 1005.1 19.0 WSW 25.9 0.0 1.0
03:00 10.7 10.6 99 1005.2 19.0 WSW 25.9 0.0 1.0
03:01 10.7 10.6 99 1005.2 19.0 WSW 25.9 0.0 1.0
03:02 10.7 10.6 99 1005.2 20.6 WSW 24.4 0.0 1.0
03:03 10.7 10.6 99 1005.2 20.6 NW 24.4 0.0 1.0
03:04 10.7 10.6 99 1005.3 23.5 WSW 24.4 0.0 1.0
03:05 10.6 10.5 99 1005.2 21.3 WSW 24.4 0.0 1.0
03:06 10.6 10.5 99 1005.1 19.7 WSW 24.4 0.0 1.0
03:07 10.6 10.5 99 1004.9 22.1 WSW 23.5 0.0 1.0
03:09 10.5 10.4 99 1005.2 22.1 NW 23.5 0.0 1.0
03:10 10.5 10.4 99 1005.2 22.8 NNW 23.5 0.0 1.0
03:11 10.5 10.4 99 1005.1 19.0 WSW 23.5 0.0 1.0
03:12 10.5 10.4 99 1005.2 18.3 N 23.5 0.0 1.0
03:13 10.5 10.4 99 1005.2 16.8 W 23.5 0.0 1.0
03:14 10.5 10.4 99 1005.2 16.8 W 23.5 0.0 1.0
03:15 10.5 10.4 99 1005.2 15.2 WSW 22.8 0.0 1.0
03:16 10.5 10.4 99 1005.4 18.3 WSW 22.8 0.0 1.0
03:17 10.4 10.3 99 1005.2 20.6 WSW 22.8 0.0 1.0
03:18 10.4 10.3 99 1005.2 18.3 WSW 22.8 0.0 1.0
03:19 10.4 10.3 99 1005.3 15.2 WSW 22.8 0.0 1.0
03:20 10.4 10.3 99 1005.5 15.9 SSW 22.8 0.0 1.0
03:21 10.4 10.3 99 1005.3 19.0 WSW 20.6 0.0 1.0
03:23 10.4 10.3 99 1005.5 22.1 WSW 24.4 0.0 1.0
03:24 10.4 10.3 99 1005.3 24.4 WSW 24.4 0.0 1.0
03:25 10.4 10.3 99 1005.4 24.4 WSW 24.4 0.0 1.0
03:26 10.4 10.3 99 1005.2 20.6 WSW 24.4 0.0 1.0
03:27 10.3 10.2 99 1005.4 20.6 WSW 24.4 0.0 1.0
03:28 10.4 10.3 99 1005.3 26.6 S 26.6 0.0 1.0
03:29 10.3 10.2 99 1005.3 28.9 S 28.9 0.0 1.0
03:30 10.3 10.2 99 1005.3 27.3 WSW 28.9 0.0 1.0
03:31 10.3 10.2 99 1005.1 24.4 WSW 28.9 0.0 1.0
03:32 10.3 10.2 99 1005.3 22.8 WSW 28.9 0.0 1.0
03:33 10.3 10.2 99 1005.2 23.5 WSW 28.9 0.0 1.0
03:34 10.3 10.2 99 1005.4 26.6 WSW 28.9 0.0 1.0
03:35 10.2 9.9 98 1005.3 19.7 WSW 28.9 0.0 1.0
03:36 10.2 9.9 98 1005.3 19.0 WSW 28.9 0.0 1.0
03:37 10.2 9.7 97 1005.3 16.8 WSW 28.9 0.0 1.0
03:38 10.2 9.7 97 1005.4 21.3 WSW 28.9 0.0 1.0
03:39 10.1 9.6 97 1005.5 25.9 WSW 27.3 0.0 1.0
03:40 10.1 9.5 96 1005.3 19.0 WSW 27.3 0.0 1.0
03:41 10.1 9.5 96 1005.3 15.2 WSW 26.6 0.0 1.0
03:42 10.1 9.5 96 1005.5 22.8 S 26.6 0.0 1.0
03:43 10.1 9.3 95 1005.6 16.8 S 26.6 0.0 1.0
03:44 10.0 9.2 95 1005.4 19.0 WSW 26.6 0.0 1.0
03:45 10.0 9.2 95 1005.6 15.2 WSW 25.9 0.0 1.0
03:46 10.0 9.1 94 1005.5 21.3 NW 25.9 0.0 1.0
03:47 10.0 9.1 94 1005.5 22.8 WSW 25.9 0.0 1.0
03:48 10.0 9.1 94 1005.4 23.5 S 25.9 0.0 1.0
03:50 10.0 9.1 94 1005.4 22.8 WSW 24.4 0.0 1.0
03:51 10.0 8.9 93 1005.6 24.4 WSW 24.4 0.0 1.0
03:52 10.0 8.9 93 1005.4 21.3 NW 24.4 0.0 1.0
03:53 10.0 8.9 93 1005.3 18.3 WSW 24.4 0.0 1.0
03:54 10.0 8.9 93 1005.3 22.8 NW 24.4 0.0 1.0
03:55 9.9 8.8 93 1005.1 25.1 WSW 25.1 0.0 1.0
03:56 9.9 8.7 92 1005.4 25.1 WSW 25.1 0.0 1.0
03:57 9.9 8.7 92 1005.4 22.8 NW 25.1 0.0 1.0
03:58 9.9 8.7 92 1005.4 25.1 WSW 25.1 0.0 1.0
03:59 9.9 8.7 92 1005.4 21.3 WSW 25.1 0.0 1.0
04:00 9.9 8.5 91 1005.2 24.4 WSW 25.1 0.0 1.0
04:01 9.9 8.5 91 1005.5 24.4 WSW 25.1 0.0 1.0
04:02 9.8 8.4 91 1005.4 15.9 NNW 25.1 0.0 1.0
04:03 9.8 8.2 90 1005.5 17.4 WSW 25.1 0.0 1.0
04:05 9.8 8.2 90 1005.5 23.5 W 25.1 0.0 1.0
04:06 9.7 8.1 90 1005.7 27.3 WSW 27.3 0.0 1.0
04:07 9.7 8.0 89 1005.5 20.6 WSW 27.3 0.0 1.0
04:08 9.7 8.0 89 1005.6 20.6 WSW 27.3 0.0 1.0
04:09 9.7 8.0 89 1005.6 20.6 WSW 27.3 0.0 1.0
04:10 9.7 8.0 89 1005.6 15.2 WSW 27.3 0.0 1.0
04:11 9.7 8.0 89 1005.6 19.7 WSW 27.3 0.0 1.0
04:12 9.6 7.9 89 1005.6 19.0 WSW 27.3 0.0 1.0
04:13 9.6 7.9 89 1005.7 15.9 S 27.3 0.0 1.0
04:14 9.6 7.9 89 1005.6 18.3 WSW 27.3 0.0 1.0
04:15 9.6 7.9 89 1005.4 25.1 WSW 27.3 0.0 1.0
04:16 9.6 7.9 89 1005.5 21.3 WSW 27.3 0.0 1.0
04:17 9.6 7.9 89 1005.6 22.8 WSW 25.1 0.0 1.0
04:19 9.6 7.9 89 1005.6 19.0 NW 25.1 0.0 1.0
04:20 9.6 7.9 89 1005.6 19.7 WSW 26.6 0.0 1.0
04:21 9.6 7.9 89 1005.5 16.8 WSW 26.6 0.0 1.0
04:22 9.6 7.9 89 1005.4 19.7 WSW 26.6 0.0 1.0
04:23 9.6 7.9 89 1005.4 19.7 NW 26.6 0.0 1.0
04:24 9.6 7.9 89 1005.5 19.0 WSW 26.6 0.0 1.0
04:25 9.6 7.9 89 1005.5 18.3 WSW 26.6 0.0 1.0
04:26 9.6 7.9 89 1005.6 26.6 WSW 26.6 0.0 1.0
04:27 9.6 7.9 89 1005.5 20.6 NW 26.6 0.0 1.0
04:28 9.6 7.9 89 1005.7 27.3 WSW 27.3 0.0 1.0
04:29 9.6 7.9 89 1005.7 24.4 WSW 27.3 0.0 1.0
04:30 9.6 7.9 89 1005.5 20.6 W 27.3 0.0 1.0
04:31 9.6 7.9 89 1005.8 25.9 WSW 27.3 0.0 1.0
04:33 9.6 7.7 88 1005.9 28.2 WSW 28.2 0.0 1.0
04:34 9.5 7.6 88 1005.8 22.8 WSW 28.2 0.0 1.0
04:35 9.5 7.6 88 1005.9 25.1 W 28.2 0.0 1.0
04:36 9.6 7.7 88 1005.9 27.3 WNW 28.2 0.0 1.0
04:37 9.6 7.7 88 1005.9 27.3 WNW 28.2 0.0 1.0
04:38 9.6 7.5 87 1005.9 19.0 WSW 28.2 0.0 1.0
04:39 9.6 7.5 87 1005.9 22.8 WNW 28.2 0.0 1.0
04:40 9.6 7.5 87 1006.0 22.1 S 28.2 0.0 1.0
04:41 9.6 7.5 87 1005.7 19.7 S 28.2 0.0 1.0
04:42 9.6 7.5 87 1006.0 25.1 WSW 28.2 0.0 1.0
04:43 9.5 7.3 86 1006.0 19.7 S 28.2 0.0 1.0
04:44 9.6 7.4 86 1005.8 26.6 WSW 27.3 0.0 1.0
04:45 9.5 7.3 86 1006.0 22.8 WSW 27.3 0.0 1.0
04:47 9.6 7.4 86 1005.9 22.1 N 26.6 0.0 1.0
04:48 9.6 7.2 85 1006.0 20.6 SW 26.6 0.0 1.0
04:49 9.6 7.2 85 1005.9 21.3 W 26.6 0.0 1.0
04:50 9.6 7.2 85 1006.1 24.4 WSW 26.6 0.0 1.0
04:51 9.6 7.2 85 1006.0 19.7 S 26.6 0.0 1.0
04:52 9.6 7.2 85 1005.9 22.8 WSW 26.6 0.0 1.0
04:53 9.6 7.2 85 1005.7 23.5 SW 26.6 0.0 1.0
04:54 9.6 7.2 85 1005.9 17.4 S 26.6 0.0 1.0
04:55 9.5 7.1 85 1005.8 19.7 NW 25.1 0.0 1.0
04:56 9.5 7.1 85 1005.9 19.7 WSW 25.1 0.0 1.0
04:57 9.5 6.9 84 1006.0 23.5 WSW 25.1 0.0 1.0
04:58 9.5 6.9 84 1006.2 25.9 W 28.2 0.0 1.0
04:59 9.5 6.9 84 1006.0 31.1 NW 31.1 0.0 1.0
05:00 9.5 6.9 84 1006.1 22.1 WSW 31.1 0.0 1.0
05:02 9.5 6.9 84 1005.9 23.5 WSW 31.1 0.0 1.0
05:03 9.5 6.8 83 1006.0 22.1 WSW 31.1 0.0 1.0
05:04 9.5 6.8 83 1006.0 24.4 S 31.1 0.0 1.0
05:05 9.5 6.8 83 1006.1 24.4 NW 31.1 0.0 1.0
05:06 9.5 6.8 83 1006.0 22.8 WNW 31.1 0.0 1.0
05:07 9.5 6.8 83 1006.1 15.2 S 31.1 0.0 1.0
05:08 9.5 6.8 83 1006.1 13.0 WSW 31.1 0.0 1.0
05:09 9.5 6.8 83 1006.1 18.3 NW 31.1 0.0 1.0
05:10 9.4 6.5 82 1006.1 22.1 WSW 28.2 0.0 1.0
05:11 9.4 6.5 82 1006.1 19.0 WSW 28.2 0.0 1.0
05:12 9.4 6.5 82 1005.7 18.3 WSW 25.9 0.0 1.0
05:13 9.4 6.5 82 1006.1 15.2 WSW 25.9 0.0 1.0
05:14 9.4 6.5 82 1005.9 15.2 NW 24.4 0.0 1.0
05:16 9.3 6.4 82 1006.0 17.4 WSW 22.1 0.0 1.0
05:17 9.3 6.4 82 1006.1 19.0 NW 22.1 0.0 1.0
05:18 9.3 6.4 82 1006.1 18.3 W 22.1 0.0 1.0
05:19 9.3 6.4 82 1006.0 17.4 SW 22.1 0.0 1.0
05:20 9.3 6.4 82 1006.1 19.0 NNW 21.3 0.0 1.0
05:21 9.3 6.4 82 1006.1 19.0 NNW 21.3 0.0 1.0
05:22 9.3 6.4 82 1006.1 23.5 WSW 23.5 0.0 1.0
05:23 9.3 6.4 82 1006.3 23.5 NNW 23.5 0.0 1.0
05:24 9.3 6.4 82 1006.1 29.8 W 29.8 0.0 1.0
05:25 9.3 6.4 82 1006.2 25.9 WSW 29.8 0.0 1.0
05:26 9.3 6.4 82 1006.3 20.6 WSW 29.8 0.0 1.0
05:27 9.3 6.4 82 1006.3 22.8 WSW 29.8 0.0 1.0
05:28 9.3 6.4 82 1006.1 17.4 NW 29.8 0.0 1.0
05:30 9.3 6.2 81 1006.3 19.0 S 29.8 0.0 1.0
05:31 9.3 6.2 81 1006.2 22.1 WSW 29.8 0.0 1.0
05:32 9.2 6.1 81 1006.2 15.9 WSW 29.8 0.0 1.0
05:33 9.2 6.1 81 1006.1 18.3 WSW 29.8 0.0 1.0
05:34 9.2 6.1 81 1006.2 19.7 WSW 25.9 0.0 1.0
05:35 9.2 6.1 81 1006.1 16.8 WSW 22.8 0.0 1.0
05:36 9.2 6.1 81 1006.0 22.8 WSW 22.8 0.0 1.0
05:37 9.2 6.1 81 1006.2 21.3 WSW 22.8 0.0 1.0
05:38 9.2 6.1 81 1006.2 17.4 W 22.8 0.0 1.0
05:39 9.2 6.1 81 1006.3 15.2 WSW 22.8 0.0 1.0
05:40 9.2 6.1 81 1006.1 18.3 NW 22.8 0.0 1.0
05:41 9.2 6.1 81 1006.2 19.7 N 22.8 0.0 1.0
05:42 9.2 6.1 81 1006.2 14.5 WSW 22.8 0.0 1.0
05:44 9.2 6.1 81 1006.2 19.0 S 22.8 0.0 1.0
05:45 9.2 6.1 81 1006.2 20.6 WSW 22.8 0.0 1.0
05:46 9.2 6.1 81 1006.1 23.5 NW 23.5 0.0 1.0
05:47 9.2 6.1 81 1006.3 24.4 W 24.4 0.0 1.0
05:48 9.2 6.1 81 1006.2 20.6 WSW 24.4 0.0 1.0
05:49 9.2 6.1 81 1006.2 20.6 WSW 24.4 0.0 1.0
05:50 9.2 6.1 81 1006.2 22.8 WSW 24.4 0.0 1.0
05:51 9.2 6.1 81 1006.2 17.4 WSW 24.4 0.0 1.0
05:52 9.2 6.1 81 1006.1 33.6 WSW 33.6 0.0 1.0
05:53 9.2 6.1 81 1006.1 21.3 WSW 33.6 0.0 1.0
05:54 9.2 5.9 80 1006.2 21.3 WSW 33.6 0.0 1.0
05:55 9.2 5.9 80 1006.2 16.8 W 33.6 0.0 1.0
05:56 9.2 5.9 80 1006.3 19.0 NW 33.6 0.0 1.0
05:58 9.2 5.9 80 1006.4 18.3 WNW 33.6 0.0 1.0
05:59 9.2 5.9 80 1006.2 16.8 W 33.6 0.0 1.0
06:00 9.2 5.9 80 1006.2 15.2 WSW 33.6 0.0 1.0
06:01 9.2 5.9 80 1006.2 15.2 WSW 33.6 0.0 1.0
06:02 9.2 5.9 80 1006.4 15.2 WSW 25.9 0.0 1.0
06:03 9.2 5.9 80 1006.2 15.2 WSW 25.9 0.0 1.0
06:04 9.2 5.9 80 1006.4 15.2 WSW 25.9 0.0 1.0
06:05 9.2 5.9 80 1006.2 15.2 WSW 25.9 0.0 1.0
06:06 9.2 5.8 79 1006.4 22.8 WSW 28.9 0.0 1.0
06:07 9.2 5.8 79 1006.4 16.8 WSW 28.9 0.0 1.0
06:08 9.2 5.8 79 1006.4 21.3 WSW 28.9 0.0 1.0
06:09 9.2 5.8 79 1006.3 23.5 SSW 28.9 0.0 1.0
06:10 9.2 5.8 79 1006.4 22.1 WSW 28.9 0.0 1.0
06:12 9.3 5.8 79 1006.6 15.2 WSW 28.9 0.0 1.0
06:13 9.3 5.8 79 1006.5 15.2 WSW 28.9 0.0 1.0
06:14 9.3 5.8 79 1006.4 15.9 NW 28.9 0.0 1.0
06:15 9.3 5.8 79 1006.4 22.1 WSW 28.9 0.0 1.0
06:16 9.3 5.8 79 1006.3 20.6 W 23.5 0.0 1.0
06:17 9.3 5.8 79 1006.3 20.6 W 23.5 0.0 1.0
06:18 9.3 5.8 79 1006.5 20.6 WSW 23.5 0.0 1.0
06:19 9.3 5.8 79 1006.6 16.8 WSW 22.1 0.0 1.0
06:20 9.3 5.8 79 1006.6 13.0 WSW 22.1 0.0 1.0
06:21 9.3 5.8 79 1006.5 22.8 WSW 22.8 0.0 1.0
06:22 9.3 5.8 79 1006.4 20.6 S 22.8 0.0 1.0
06:23 9.3 5.8 79 1006.5 17.4 WSW 22.8 0.0 1.0
06:24 9.3 5.8 79 1006.5 17.4 WSW 22.8 0.0 1.0
06:26 9.2 5.8 79 1006.5 22.1 WSW 22.8 0.0 1.0
06:27 9.2 5.8 79 1006.6 23.5 WSW 23.5 0.0 1.0
06:28 9.2 5.8 79 1006.5 24.4 WSW 24.4 0.0 1.0
06:29 9.2 5.8 79 1006.7 21.3 WSW 24.4 0.0 1.0
06:30 9.3 5.8 79 1006.6 20.6 WSW 24.4 0.0 1.0
06:31 9.2 5.8 79 1006.7 17.4 WSW 24.4 0.0 1.0
06:32 9.2 5.8 79 1006.8 19.7 WSW 24.4 0.0 1.0
06:33 9.2 5.8 79 1006.7 22.1 WSW 24.4 0.0 1.0
06:34 9.2 5.8 79 1006.7 19.7 WSW 24.4 0.0 1.0
06:35 9.2 5.8 79 1006.7 21.3 N 26.6 0.0 1.0
06:36 9.3 5.7 78 1006.7 19.7 N 26.6 0.0 1.0
06:37 9.3 5.8 79 1006.7 19.0 WSW 26.6 0.0 1.0
06:38 9.3 5.8 79 1006.7 17.4 WSW 26.6 0.0 1.0
06:40 9.3 5.8 79 1006.7 16.8 NW 26.6 0.0 1.0
06:41 9.3 5.8 79 1006.7 18.3 WSW 26.6 0.0 1.0
06:42 9.3 5.8 79 1006.7 13.0 S 26.6 0.0 1.0
06:43 9.3 5.8 79 1006.7 11.4 SSW 26.6 0.0 1.0
06:44 9.3 5.8 79 1006.8 15.9 WSW 21.3 0.0 1.0
06:45 9.3 5.8 79 1006.8 15.9 WSW 21.3 0.0 1.0
06:46 9.3 5.8 79 1006.6 23.5 W 25.9 0.0 1.0
06:47 9.3 5.8 79 1006.7 19.0 W 25.9 0.0 1.0
06:48 9.3 5.8 79 1006.6 19.7 WSW 25.9 0.0 1.0
06:49 9.3 5.8 79 1006.8 21.3 WSW 25.9 0.0 1.0
06:50 9.3 5.8 79 1006.9 19.7 S 25.9 0.0 1.0
06:51 9.3 5.8 79 1006.8 19.0 S 25.9 0.0 1.0
06:52 9.3 5.8 79 1006.8 21.3 WSW 25.9 0.0 1.0
06:54 9.3 5.7 78 1006.8 17.4 S 25.9 0.0 1.0
06:55 9.3 5.8 79 1007.0 16.8 S 25.9 0.0 1.0
06:56 9.3 5.8 79 1006.8 20.6 S 21.3 0.0 1.0
06:57 9.3 5.7 78 1006.8 20.6 N 21.3 0.0 1.0
06:58 9.3 5.7 78 1006.9 15.9 N 21.3 0.0 1.0
06:59 9.3 5.8 79 1006.9 18.3 N 21.3 0.0 1.0
07:00 9.3 5.7 78 1006.8 22.1 N 22.1 0.0 1.0
07:01 9.3 5.7 78 1006.8 22.1 N 22.1 0.0 1.0
07:02 9.3 5.8 79 1007.0 13.0 N 22.1 0.0 1.0
07:03 9.3 5.8 79 1006.8 20.6 W 22.1 0.0 1.0
07:04 9.3 5.8 79 1006.8 15.9 W 22.1 0.0 1.0
07:05 9.3 5.8 79 1006.8 14.5 N 22.1 0.0 1.0
07:06 9.3 5.8 79 1006.8 17.4 N 22.1 0.0 1.0
07:08 9.3 5.8 79 1007.0 13.6 S 22.1 0.0 1.0
07:09 9.3 5.8 79 1007.0 17.4 WSW 22.1 0.0 1.0
07:10 9.3 5.8 79 1006.8 14.5 WSW 22.1 0.0 1.0
07:11 9.3 5.8 79 1007.0 15.2 N 22.1 0.0 1.0
07:12 9.3 5.8 79 1006.9 16.8 N 22.1 0.0 1.0
07:13 9.3 5.8 79 1006.9 16.8 N 22.1 0.0 1.0
07:14 9.3 5.8 79 1006.8 13.0 N 22.1 0.0 1.0
07:15 9.3 5.8 79 1006.8 19.0 WSW 22.1 0.0 1.0
07:16 9.3 5.8 79 1006.7 19.0 WSW 19.0 0.0 1.0
07:17 9.3 5.8 79 1006.9 14.5 S 19.0 0.0 1.0
07:18 9.3 5.8 79 1006.8 10.7 N 19.0 0.0 1.0
07:19 9.3 5.8 79 1006.8 11.4 S 19.0 0.0 1.0
07:20 9.3 5.8 79 1006.9 10.7 N 19.0 0.0 1.0
07:22 9.3 5.8 79 1007.2 14.5 S 19.0 0.8 1.1
07:23 9.3 5.8 79 1007.4 20.6 W 20.6 3.0 1.3
07:24 9.2 5.8 79 1007.2 22.8 NW 22.8 6.0 1.6
07:25 9.1 5.7 79 1007.2 28.9 NW 28.9 6.8 1.6
07:26 9.1 5.7 79 1007.2 28.9 N 28.9 7.6 1.6
07:27 9.0 5.6 79 1007.0 20.6 N 28.9 6.8 1.6
07:28 8.9 5.3 78 1007.1 18.3 N 28.9 4.5 1.6
07:29 8.9 5.3 78 1007.2 16.8 N 28.9 1.5 1.6
07:30 8.8 5.2 78 1007.0 18.3 NW 28.9 0.8 1.6
07:31 8.8 5.2 78 1007.0 16.8 NW 28.9 0.0 1.6
07:32 8.7 5.1 78 1006.9 22.1 SW 28.9 0.0 1.6
07:33 8.8 5.4 79 1007.0 19.7 NW 28.9 0.0 1.6
07:34 8.6 5.2 79 1007.1 22.1 NW 28.9 0.0 1.6
07:36 8.6 5.2 79 1007.1 19.0 S 22.1 0.0 1.6
07:37 8.6 5.2 79 1006.8 16.8 S 22.1 0.0 1.6
07:38 8.6 5.3 80 1006.9 15.9 N 22.1 0.0 1.6
07:39 8.6 5.3 80 1007.0 19.0 N 22.1 0.0 1.6
07:40 8.6 5.3 80 1007.0 19.7 NW 22.1 0.0 1.6
07:41 8.6 5.3 80 1007.0 19.7 NW 22.1 0.0 1.6
07:42 8.6 5.3 80 1006.9 15.2 NW 22.1 0.0 1.6
07:43 8.6 5.3 80 1007.0 17.4 NW 22.1 0.0 1.6
07:44 8.6 5.3 80 1006.9 16.8 N 22.1 0.0 1.6
07:45 8.6 5.3 80 1006.9 13.0 N 19.7 0.0 1.6
07:46 8.6 5.3 80 1006.9 13.6 NW 19.7 0.0 1.6
07:47 8.6 5.3 80 1007.0 13.0 N 19.7 0.0 1.6
07:48 8.6 5.3 80 1006.9 10.7 N 19.7 0.0 1.6
07:50 8.5 5.4 81 1006.8 12.1 NW 19.7 0.0 1.6
07:51 8.5 5.4 81 1007.0 13.6 SW 19.0 0.0 1.6
07:52 8.5 5.4 81 1006.9 15.9 NW 17.4 0.0 1.6
07:53 8.5 5.4 81 1006.8 17.4 NW 17.4 0.0 1.6
07:54 8.5 5.4 81 1006.8 18.3 N 18.3 0.0 1.6
07:55 8.5 5.4 81 1006.9 15.9 S 18.3 0.0 1.6
07:56 8.5 5.4 81 1006.8 22.1 S 22.1 0.0 1.6
07:57 8.5 5.4 81 1007.1 20.6 N 22.1 0.0 1.6
07:58 8.5 5.4 81 1007.0 17.4 N 22.1 0.0 1.6
07:59 8.5 5.4 81 1006.8 19.0 N 22.1 0.0 1.6
08:00 8.5 5.4 81 1007.1 18.3 N 22.1 0.0 1.6
08:01 8.5 5.4 81 1007.1 18.3 N 22.1 0.0 1.6
08:02 8.6 5.5 81 1007.0 22.1 S 22.8 0.0 1.6
08:04 8.6 5.5 81 1007.0 19.0 N 22.8 0.0 1.6
08:05 8.6 5.5 81 1007.1 22.8 N 22.8 0.0 1.6
08:06 8.6 5.5 81 1007.1 12.1 N 22.8 0.0 1.6
08:07 8.6 5.3 80 1007.2 16.8 N 22.8 0.0 1.6
08:08 8.6 5.3 80 1007.1 13.0 NW 22.8 0.0 1.6
08:09 8.6 5.3 80 1007.1 13.0 NW 22.8 0.0 1.6
08:10 8.5 5.2 80 1007.3 22.1 S 22.8 0.0 1.6
08:11 8.5 5.2 80 1006.9 25.1 NW 25.1 0.0 1.6
08:12 8.5 5.2 80 1007.3 22.8 S 25.1 0.0 1.6
08:13 8.5 5.2 80 1007.1 20.6 WNW 25.1 0.0 1.6
08:14 8.5 5.2 80 1007.2 25.1 WNW 25.1 0.0 1.6
08:15 8.5 5.2 80 1007.2 13.6 N 25.1 0.0 1.6
08:16 8.5 5.2 80 1007.1 13.0 N 25.1 0.0 1.6
08:18 8.5 5.1 79 1007.3 19.0 WNW 25.1 0.0 1.6
08:19 8.5 5.1 79 1007.1 15.9 WNW 25.1 0.0 1.6
08:20 8.5 5.1 79 1007.2 16.8 WNW 25.1 0.0 1.6
08:21 8.5 5.1 79 1007.2 16.8 WNW 25.1 0.0 1.6
08:22 8.5 5.1 79 1007.3 14.5 N 25.1 0.0 1.6
08:23 8.5 5.1 79 1007.2 14.5 S 25.1 0.0 1.6
08:24 8.5 5.1 79 1007.3 15.2 SW 19.0 0.0 1.6
08:25 8.5 5.1 79 1007.2 17.4 SW 19.0 0.0 1.6
08:26 8.5 5.1 79 1007.3 24.4 SW 24.4 0.0 1.6
08:27 8.5 5.1 79 1007.4 16.8 S 24.4 0.0 1.6
08:28 8.5 5.1 79 1007.1 19.7 S 24.4 0.0 1.6
08:29 8.5 5.1 79 1007.2 15.9 N 24.4 0.0 1.6
08:30 8.5 5.1 79 1007.2 21.3 SW 24.4 0.0 1.6
08:32 8.6 5.2 79 1007.2 15.2 SW 24.4 0.0 1.6
08:33 8.6 5.2 79 1007.1 18.3 S 24.4 0.0 1.6
08:34 8.6 5.2 79 1007.2 22.1 SW 24.4 0.0 1.6
08:35 8.6 5.2 79 1007.2 16.8 SW 24.4 0.0 1.6
08:36 8.6 5.2 79 1007.2 23.5 S 28.2 0.0 1.6
08:37 8.6 5.2 79 1007.2 23.5 S 28.2 0.0 1.6
08:38 8.7 5.3 79 1007.1 22.8 SW 28.2 0.0 1.6
08:39 8.7 5.3 79 1007.3 22.1 WSW 28.2 0.0 1.6
08:40 8.7 5.3 79 1007.1 28.9 SW 28.9 0.0 1.6
08:41 8.8 5.4 79 1007.2 18.3 SW 28.9 0.0 1.6
08:42 8.8 5.4 79 1007.3 14.5 S 28.9 0.0 1.6
08:43 8.8 5.4 79 1007.3 15.9 SW 28.9 0.0 1.6
08:44 8.8 5.4 79 1007.3 22.1 NNW 28.9 0.0 1.6
08:46 8.9 5.5 79 1007.3 18.3 SW 28.9 0.0 1.6
08:47 8.8 5.4 79 1007.3 16.8 N 28.9 0.0 1.6
08:48 8.8 5.4 79 1007.2 17.4 WSW 28.9 0.0 1.6
08:49 8.8 5.4 79 1007.2 14.5 N 28.9 0.0 1.6
08:50 8.8 5.4 79 1007.2 17.4 N 23.5 0.0 1.6
08:51 8.8 5.4 79 1007.1 17.4 SW 23.5 0.0 1.6
08:52 8.8 5.4 79 1007.2 22.1 SW 22.1 0.0 1.6
08:53 8.8 5.4 79 1007.2 19.0 SW 22.1 0.0 1.6
08:54 8.8 5.2 78 1007.2 13.6 SW 22.1 0.0 1.6
08:55 8.8 5.2 78 1007.2 18.3 S 22.1 0.0 1.6
08:56 8.8 5.2 78 1007.3 18.3 SW 22.1 0.0 1.6
08:57 8.8 5.2 78 1007.2 17.4 SW 22.1 0.0 1.6
08:59 8.8 5.0 77 1007.2 21.3 SW 22.1 0.0 1.6
09:00 8.8 5.0 77 1007.2 17.4 SW 22.1 0.0 1.6
09:01 8.8 5.0 77 1007.1 17.4 SW 22.1 0.0 1.6
09:02 8.8 5.0 77 1007.0 22.1 SW 22.1 0.0 1.6
09:03 8.8 5.0 77 1007.2 17.4 W 22.1 0.0 1.6
09:04 8.8 5.0 77 1007.2 15.9 WSW 22.1 0.0 1.6
09:05 8.8 5.0 77 1007.2 15.9 WSW 22.1 0.0 1.6
09:06 8.8 5.0 77 1007.2 17.4 SE 22.1 0.0 1.6
09:07 8.8 5.0 77 1007.2 20.6 SW 22.1 0.0 1.6
09:08 8.8 5.0 77 1007.2 19.7 SW 22.1 0.0 1.6
09:09 8.8 5.0 77 1007.1 20.6 SW 22.1 0.0 1.6
09:10 8.8 5.0 77 1007.4 15.2 SW 22.1 0.0 1.6
09:11 8.9 5.1 77 1007.2 19.0 SW 22.1 0.0 1.6
09:12 9.0 5.2 77 1007.2 15.2 SW 20.6 0.0 1.6
09:14 8.9 5.1 77 1007.2 22.1 S 22.1 0.0 1.6
09:15 8.9 4.9 76 1007.2 16.8 S 22.1 0.0 1.6
09:16 8.9 4.9 76 1007.2 15.2 S 22.1 0.0 1.6
09:17 8.9 5.1 77 1007.1 18.3 SW 22.1 0.0 1.6
09:18 8.9 5.1 77 1007.1 19.0 WSW 22.1 0.0 1.6
09:19 8.9 5.1 77 1007.3 15.2 SW 22.1 0.0 1.6
09:20 8.9 4.9 76 1007.3 13.6 W 22.1 0.0 1.6
09:21 8.9 4.9 76 1007.0 19.0 SW 22.1 0.0 1.6
09:22 9.0 5.0 76 1007.1 19.7 NW 22.1 0.0 1.6
09:23 8.9 4.9 76 1007.0 20.6 SW 22.1 0.0 1.6
09:24 9.0 5.0 76 1007.0 19.0 SW 22.1 0.0 1.6
09:25 9.0 5.0 76 1007.1 16.8 SW 20.6 0.0 1.6
09:26 9.0 5.0 76 1007.1 13.6 SW 20.6 0.0 1.6
09:27 9.0 5.0 76 1007.1 16.8 S 20.6 0.0 1.6
09:29 9.0 5.0 76 1006.9 16.8 SW 22.1 0.0 1.6
09:30 9.0 5.0 76 1007.1 17.4 SW 22.1 0.0 1.6
09:31 9.1 5.1 76 1007.2 21.3 S 22.1 0.0 1.6
09:32 9.1 5.1 76 1007.0 15.2 S 22.1 0.0 1.6
09:33 9.1 5.1 76 1007.1 18.3 SW 22.1 0.0 1.6
09:34 9.1 5.1 76 1007.1 18.3 SW 22.1 0.0 1.6
09:35 9.2 5.2 76 1007.1 22.1 SW 22.1 0.0 1.6
09:36 9.2 5.2 76 1007.0 21.3 SW 22.1 0.0 1.6
09:37 9.2 5.2 76 1007.0 22.8 SW 22.8 0.0 1.6
09:38 9.2 5.2 76 1007.1 19.7 SW 22.8 0.0 1.6
09:39 9.2 5.2 76 1007.0 19.0 SW 22.8 0.0 1.6
09:40 9.3 5.3 76 1007.2 22.8 S 22.8 0.0 1.6
09:41 9.3 5.3 76 1007.1 16.8 SW 22.8 0.0 1.6
09:43 9.4 5.4 76 1007.2 15.9 S 22.8 0.0 1.6
09:44 9.4 5.4 76 1007.1 14.5 WSW 22.8 0.0 1.6
09:45 9.4 5.4 76 1007.1 19.7 SW 22.8 0.0 1.6
09:46 9.4 5.4 76 1006.9 25.1 SW 25.1 0.0 1.6
09:47 9.5 5.5 76 1007.0 20.6 SW 25.1 0.0 1.6
09:48 9.5 5.5 76 1006.9 21.3 N 25.1 0.0 1.6
09:49 9.5 5.5 76 1007.0 19.0 S 25.1 0.0 1.6
09:50 9.5 5.3 75 1007.0 19.0 S 25.1 0.0 1.6
09:51 9.5 5.3 75 1007.0 16.8 SW 25.1 0.0 1.6
09:52 9.5 5.3 75 1006.9 15.9 NNE 25.1 0.0 1.6
09:53 9.5 5.3 75 1007.0 11.4 SW 25.1 0.0 1.6
09:54 9.5 5.3 75 1006.9 16.8 S 25.1 0.0 1.6
09:55 9.5 5.3 75 1006.9 19.0 SW 25.1 0.0 1.6
09:57 9.5 5.5 76 1006.7 15.9 SW 21.3 0.0 1.6
09:58 9.5 5.5 76 1006.9 27.3 SW 27.3 0.0 1.6
09:59 9.5 5.3 75 1007.0 30.4 SE 30.4 0.0 1.6
10:00 9.5 5.3 75 1007.1 21.3 SW 30.4 0.0 1.6
10:01 9.5 5.3 75 1006.9 21.3 SW 30.4 0.0 1.6
10:02 9.5 5.3 75 1006.9 25.9 SW 30.4 0.0 1.6
10:03 9.5 5.1 74 1007.1 23.5 SSW 30.4 0.0 1.6
10:04 9.4 5.0 74 1007.0 26.6 S 30.4 0.0 1.6
10:05 9.4 4.8 73 1007.0 25.9 SW 30.4 0.0 1.6
10:06 9.4 4.8 73 1006.8 25.1 S 30.4 0.0 1.6
10:07 9.4 4.6 72 1006.8 25.9 S 30.4 0.0 1.6
10:08 9.4 4.6 72 1007.2 26.6 SW 30.4 0.0 1.6
10:09 9.4 4.6 72 1007.1 18.3 NW 26.6 0.0 1.6
10:11 9.4 4.6 72 1007.0 22.1 SW 26.6 0.0 1.6
10:12 9.5 4.7 72 1006.8 25.9 S 26.6 0.0 1.6
10:13 9.5 4.7 72 1007.0 25.1 SW 26.6 0.0 1.6
10:14 9.5 4.7 72 1006.9 26.6 SW 26.6 0.0 1.6
10:15 9.5 4.7 72 1007.1 30.4 S 30.4 0.0 1.6
10:16 9.5 4.7 72 1006.8 25.9 SW 30.4 0.0 1.6
10:17 9.5 4.7 72 1006.9 17.4 SW 30.4 0.0 1.6
10:18 9.5 4.7 72 1006.8 20.6 W 30.4 0.0 1.6
10:19 9.4 4.6 72 1007.0 20.6 SSW 30.4 0.0 1.6
10:20 9.5 4.7 72 1006.8 16.8 S 30.4 0.0 1.6
10:21 9.5 4.7 72 1006.8 21.3 S 30.4 0.0 1.6
10:22 9.5 4.7 72 1006.9 28.9 S 30.4 0.0 1.6
10:23 9.5 4.9 73 1006.8 23.5 WSW 30.4 0.0 1.6
10:25 9.6 5.0 73 1006.9 19.0 SE 28.9 0.0 1.6
10:26 9.5 4.9 73 1006.8 19.0 SW 28.9 0.0 1.6
10:27 9.5 4.9 73 1006.8 19.0 SW 28.9 0.0 1.6
10:28 9.5 4.9 73 1006.8 17.4 SSW 28.9 0.0 1.6
10:29 9.5 4.9 73 1006.8 18.3 SW 28.9 0.0 1.6
10:30 9.5 4.9 73 1006.9 15.9 S 28.9 0.0 1.6
10:31 9.5 5.1 74 1006.9 22.1 SW 28.9 0.0 1.6
10:32 9.4 5.0 74 1006.9 19.7 SSW 28.9 0.0 1.6
10:33 9.4 4.8 73 1007.0 18.3 S 23.5 0.0 1.6
10:34 9.4 4.8 73 1006.8 20.6 SW 22.1 0.0 1.6
10:35 9.4 5.0 74 1006.7 19.7 SW 24.4 0.0 1.6
10:36 9.3 4.9 74 1007.0 24.4 SW 24.4 0.0 1.6
10:37 9.2 4.8 74 1006.8 23.5 S 24.4 0.0 1.6
10:39 9.2 4.8 74 1006.9 19.7 SW 24.4 0.0 1.6
10:40 9.1 4.7 74 1006.8 25.1 S 25.1 0.0 1.6
10:41 9.1 4.7 74 1006.8 20.6 S 25.1 0.0 1.6
10:42 9.1 4.7 74 1006.8 20.6 SW 25.1 0.0 1.6
10:43 9.1 4.7 74 1006.8 18.3 S 25.1 0.0 1.6
10:44 9.1 4.7 74 1006.7 22.8 SW 25.1 0.0 1.6
10:45 9.0 4.6 74 1006.8 15.9 NW 25.1 0.0 1.6
10:46 9.0 4.6 74 1006.6 21.3 NNW 25.1 0.0 1.6
10:47 9.0 4.6 74 1006.7 19.0 SW 25.1 0.0 1.6
10:48 9.0 4.6 74 1006.8 25.1 S 25.1 0.0 1.6
10:49 9.0 4.6 74 1006.7 28.2 SW 28.2 0.0 1.6
10:50 9.0 4.6 74 1006.8 17.4 S 28.2 0.0 1.6
10:51 9.0 4.6 74 1006.5 19.7 NNW 28.2 0.0 1.6
10:53 9.0 4.6 74 1006.8 16.8 SW 28.2 0.0 1.6
10:54 9.0 4.6 74 1006.8 17.4 S 28.2 0.0 1.6
10:55 9.0 4.6 74 1006.8 19.7 SSW 28.2 0.0 1.6
10:56 9.0 4.8 75 1006.7 17.4 SW 28.2 0.0 1.6
10:57 9.0 4.8 75 1006.7 20.6 SW 28.2 0.0 1.6
10:58 9.0 4.8 75 1006.7 15.9 SW 28.2 0.0 1.6
10:59 9.0 4.8 75 1006.7 21.3 S 21.3 0.0 1.6
11:00 9.0 4.8 75 1006.7 25.1 SSW 25.1 0.0 1.6
11:01 9.0 4.8 75 1006.5 25.1 SSW 25.1 0.0 1.6
11:02 9.0 4.8 75 1006.7 22.1 SW 25.1 0.0 1.6
11:03 9.0 4.8 75 1006.6 20.6 SW 25.1 0.0 1.6
11:04 9.0 4.8 75 1006.7 19.0 SW 25.1 0.0 1.6
11:05 9.0 4.8 75 1006.7 20.6 S 25.1 0.0 1.6
11:06 9.0 4.8 75 1006.7 19.7 S 25.1 0.0 1.6
11:08 9.0 4.8 75 1006.7 21.3 NW 25.1 0.0 1.6
11:09 9.0 4.8 75 1006.5 22.1 S 25.1 0.0 1.6
11:10 9.0 4.8 75 1006.5 15.9 SW 25.1 0.0 1.6
11:11 9.0 4.8 75 1006.4 20.6 SW 22.8 0.0 1.6
11:12 9.0 4.8 75 1006.6 20.6 SW 22.8 0.0 1.6
11:13 9.0 4.8 75 1006.6 19.7 WNW 22.8 0.0 1.6
11:14 9.0 4.8 75 1006.4 17.4 SW 22.8 0.0 1.6
11:15 9.0 4.8 75 1006.6 15.9 SW 24.4 0.0 1.6
11:16 9.0 4.6 74 1006.5 20.6 S 24.4 0.0 1.6
11:17 9.0 4.6 74 1006.4 21.3 SW 24.4 0.0 1.6
11:18 9.0 4.6 74 1006.4 18.3 SW 24.4 0.0 1.6
11:19 9.0 4.6 74 1006.5 24.4 SW 24.4 0.0 1.6
11:20 9.0 4.6 74 1006.4 15.2 SW 24.4 0.0 1.6
11:22 9.0 4.6 74 1006.6 17.4 SE 24.4 0.0 1.6
11:23 9.0 4.6 74 1006.6 23.5 SW 24.4 0.0 1.6
11:24 9.0 4.6 74 1006.5 17.4 NNW 25.9 0.0 1.6
11:25 9.0 4.6 74 1006.6 22.8 SSW 25.9 0.0 1.6
11:26 9.1 4.7 74 1006.7 22.8 S 25.9 0.0 1.6
11:27 9.1 4.7 74 1006.5 16.8 W 25.9 0.0 1.6
11:28 9.1 4.7 74 1006.4 19.0 SW 25.9 0.0 1.6
11:29 9.2 4.8 74 1006.6 22.1 S 25.9 0.0 1.6
11:30 9.2 4.8 74 1006.5 30.4 SW 30.4 0.0 1.6
11:31 9.2 4.8 74 1006.2 25.9 WNW 30.4 0.0 1.6
11:32 9.2 4.6 73 1006.4 23.5 WNW 30.4 0.0 1.6
11:33 9.2 4.6 73 1006.5 28.2 WNW 30.4 0.0 1.6
11:34 9.3 4.7 73 1006.3 18.3 SW 30.4 0.0 1.6
11:36 9.3 4.7 73 1006.2 20.6 SW 30.4 0.0 1.6
11:37 9.4 4.8 73 1006.2 22.1 S 30.4 0.0 1.6
11:38 9.4 4.8 73 1005.9 22.1 NNE 30.4 0.0 1.6
11:39 9.5 4.9 73 1006.0 27.3 SW 30.4 0.0 1.6
11:40 9.5 4.9 73 1006.0 18.3 SW 30.4 0.0 1.6
11:41 9.6 5.0 73 1006.0 25.1 SW 28.9 0.0 1.6
11:42 9.7 5.1 73 1005.9 20.6 WSW 28.9 0.0 1.6
11:43 9.7 5.1 73 1005.9 15.9 SW 28.9 0.0 1.6
11:44 9.8 5.2 73 1006.0 19.0 SW 27.3 0.0 1.6
11:45 9.8 5.2 73 1005.9 15.9 SW 27.3 0.0 1.6
11:46 9.9 5.3 73 1005.9 25.1 SW 27.3 0.0 1.6
11:47 10.0 5.4 73 1005.8 28.2 NNW 28.2 0.0 1.6
11:49 10.1 5.3 72 1005.9 22.1 WSW 28.2 0.0 1.6
11:50 10.1 5.3 72 1005.8 15.9 SW 28.2 0.0 1.6
11:51 10.1 5.1 71 1005.8 23.5 S 28.2 0.0 1.6
11:52 10.2 5.2 71 1005.8 23.5 SSW 28.2 0.0 1.6
11:53 10.2 5.2 71 1005.9 22.1 SW 28.2 0.0 1.6
11:54 10.2 5.2 71 1005.9 22.1 SW 28.2 0.0 1.6
11:55 10.2 5.0 70 1005.9 20.6 SW 28.2 0.0 1.6
11:56 10.2 5.0 70 1005.7 19.7 SW 28.2 0.0 1.6
11:57 10.3 4.9 69 1005.6 23.5 SW 28.2 0.0 1.6
11:58 10.3 4.9 69 1005.8 25.9 SW 25.9 0.0 1.6
11:59 10.4 4.8 68 1006.0 26.6 SW 26.6 0.0 1.6
12:00 10.4 4.8 68 1005.9 31.1 N 31.1 0.0 1.6
12:01 10.4 4.8 68 1006.0 31.1 N 31.1 0.0 1.6
12:02 10.5 4.2 65 1006.0 33.6 SW 37.4 0.8 1.7
12:04 10.4 4.1 65 1006.1 31.1 SW 37.4 0.8 1.7
12:05 10.4 3.9 64 1005.8 33.6 SW 37.4 0.8 1.7
12:06 10.4 3.9 64 1006.0 24.4 SW 37.4 0.8 1.7
12:07 10.4 3.9 64 1005.9 19.0 SW 37.4 0.0 1.7
12:08 10.3 3.8 64 1005.9 30.4 SW 37.4 0.0 1.7
12:09 10.3 3.8 64 1005.9 32.7 SW 37.4 0.0 1.7
12:10 10.2 3.7 64 1005.8 15.9 SW 37.4 0.0 1.7
12:11 10.2 3.7 64 1005.8 27.3 S 37.4 0.0 1.7
12:12 10.1 3.6 64 1005.5 23.5 WNW 33.6 0.0 1.7
12:13 10.1 3.6 64 1005.7 23.5 SW 33.6 0.0 1.7
12:14 10.0 3.5 64 1005.8 22.1 WNW 33.6 0.0 1.7
12:15 9.9 3.4 64 1005.7 25.9 N 33.6 0.0 1.7
12:16 9.8 3.5 65 1005.8 22.8 SSW 32.7 0.0 1.7
12:18 9.7 3.4 65 1005.9 22.1 WSW 32.7 0.0 1.7
12:19 9.7 3.4 65 1005.7 23.5 SW 27.3 0.0 1.7
12:20 9.8 3.5 65 1005.7 24.4 SW 27.3 0.0 1.7
12:21 9.8 3.8 66 1005.8 18.3 SW 26.6 0.0 1.7
12:22 9.8 3.8 66 1005.7 26.6 SW 26.6 0.0 1.7
12:23 9.8 3.8 66 1005.7 22.8 SW 26.6 0.0 1.7
12:24 9.9 3.8 66 1005.7 25.9 NW 26.6 0.0 1.7
12:25 9.9 3.8 66 1005.7 28.2 SW 28.2 0.0 1.7
12:26 10.0 3.9 66 1005.6 27.3 S 28.2 0.0 1.7
12:27 10.0 3.9 66 1005.6 28.2 SW 28.2 0.0 1.7
12:28 10.0 3.9 66 1005.7 25.1 N 28.2 0.0 1.7
12:29 10.0 3.9 66 1005.7 21.3 WNW 28.2 0.0 1.7
12:30 10.0 3.9 66 1005.7 24.4 SSE 28.2 0.0 1.7
12:31 10.1 4.0 66 1005.5 24.4 S 28.2 0.0 1.7
12:33 10.1 4.0 66 1005.6 25.9 SW 29.8 0.0 1.7
12:34 10.1 4.0 66 1005.7 26.6 SW 29.8 0.0 1.7
12:35 10.0 3.9 66 1005.7 28.2 SW 29.8 0.0 1.7
12:36 10.0 3.9 66 1005.6 18.3 SW 29.8 0.0 1.7
12:37 10.0 3.9 66 1005.6 18.3 SW 29.8 0.0 1.7
12:38 10.0 3.9 66 1005.5 23.5 WSW 29.8 0.0 1.7
12:39 10.0 4.2 67 1005.4 20.6 SW 29.8 0.0 1.7
12:40 10.0 4.2 67 1005.5 19.7 SW 29.8 0.0 1.7
12:41 10.0 4.2 67 1005.7 22.1 SW 29.8 0.0 1.7
12:42 9.9 4.1 67 1005.5 25.9 SW 29.8 0.0 1.7
12:43 9.9 4.1 67 1005.5 28.2 SW 28.9 0.0 1.7
12:44 9.9 4.1 67 1005.7 33.6 SW 33.6 0.0 1.7
12:45 9.9 3.8 66 1005.5 25.9 SW 33.6 0.0 1.7
12:47 9.9 3.8 66 1005.5 22.1 SW 33.6 0.0 1.7
12:48 9.9 3.8 66 1005.6 20.6 S 33.6 0.0 1.7
12:49 9.9 3.8 66 1005.7 23.5 SW 33.6 0.0 1.7
12:50 9.9 3.8 66 1005.6 21.3 S 33.6 0.0 1.7
12:51 9.9 3.8 66 1005.5 21.3 SW 33.6 0.0 1.7
12:52 9.9 3.8 66 1005.6 25.1 SW 33.6 0.0 1.7
12:53 9.9 4.1 67 1005.7 18.3 S 33.6 0.0 1.7
12:54 9.9 4.1 67 1005.6 27.3 SW 33.6 0.0 1.7
12:55 9.9 3.8 66 1005.4 25.9 SW 27.3 0.0 1.7
12:56 9.9 3.8 66 1005.2 23.5 S 27.3 0.0 1.7
12:57 9.9 3.8 66 1005.5 20.6 SW 27.3 0.0 1.7
12:58 9.8 3.5 65 1005.7 24.4 SW 27.3 0.0 1.7
12:59 9.8 3.3 64 1005.5 38.0 NW 38.0 0.0 1.7
13:00 9.7 3.2 64 1005.3 33.6 S 38.0 0.0 1.7
13:01 9.7 3.2 64 1005.7 25.9 N 38.0 0.0 1.7
13:04 9.3 3.1 65 1006.0 31.1 SW 38.7 1.5 1.8
13:05 9.2 3.0 65 1006.1 38.0 N 38.7 1.5 1.8
13:06 8.7 2.7 66 1006.1 28.9 SW 38.7 2.3 2.0
13:07 8.5 2.7 67 1006.3 37.4 SW 38.7 3.8 2.0
13:08 8.1 2.3 67 1005.9 20.6 SW 38.7 3.0 2.0
13:09 8.0 2.5 68 1005.7 30.4 SW 38.7 2.3 2.1
13:10 7.8 2.3 68 1005.8 26.6 SW 38.7 3.0 2.1
13:11 7.6 2.1 68 1005.4 28.2 S 38.7 2.3 2.1
13:12 7.5 2.2 69 1005.5 27.3 SW 38.7 0.8 2.1
13:13 7.3 2.0 69 1005.5 24.4 NNW 38.0 0.8 2.1
13:14 7.3 2.0 69 1005.6 23.5 S 38.0 0.8 2.1
13:15 7.1 1.8 69 1005.4 22.1 SW 38.0 0.0 2.1
13:16 7.1 1.8 69 1005.3 19.7 SW 37.4 0.0 2.1
13:17 7.1 2.0 70 1005.3 19.0 SW 37.4 0.0 2.1
13:19 7.1 2.0 70 1005.2 17.4 NW 30.4 0.0 2.1
13:20 7.2 2.3 71 1005.2 16.8 SW 28.2 0.0 2.1
13:21 7.3 2.4 71 1005.0 19.7 W 27.3 0.0 2.1
13:22 7.3 2.4 71 1005.2 14.5 SW 24.4 0.0 2.1
13:23 7.4 2.5 71 1005.1 13.0 S 23.5 0.0 2.1
13:24 7.4 2.5 71 1005.2 15.9 WNW 22.1 0.0 2.1
13:25 7.5 2.6 71 1005.1 13.0 S 22.1 0.0 2.1
13:26 7.6 2.9 72 1005.1 15.9 SW 19.7 0.0 2.1
13:27 7.7 3.0 72 1005.0 17.4 SW 19.7 0.0 2.1
13:28 7.7 3.0 72 1005.0 15.9 SW 19.7 0.0 2.1
13:29 7.7 3.0 72 1005.2 16.8 SW 19.7 0.0 2.1
13:30 7.7 3.0 72 1005.2 15.9 SW 19.7 0.0 2.1
13:31 7.7 3.0 72 1005.1 21.3 SW 21.3 0.0 2.1
13:33 7.7 3.0 72 1005.0 20.6 SW 21.3 0.0 2.1
13:34 7.7 3.0 72 1004.9 22.1 SW 22.1 0.0 2.1
13:35 7.7 3.0 72 1005.0 22.8 SW 22.8 0.0 2.1
13:36 7.6 2.7 71 1005.0 25.1 SW 25.1 0.0 2.1
13:37 7.7 2.8 71 1004.8 21.3 SW 25.1 0.0 2.1
13:38 7.7 2.8 71 1004.9 22.1 SW 25.1 0.0 2.1
13:39 7.7 2.8 71 1005.1 20.6 SW 25.1 0.0 2.1
13:40 7.7 2.8 71 1005.0 19.7 SSW 25.1 0.0 2.1
13:41 7.7 2.8 71 1004.8 22.1 SW 25.1 0.0 2.1
13:42 7.7 2.8 71 1005.0 23.5 SW 25.1 0.0 2.1
13:43 7.7 2.8 71 1005.0 20.6 SW 25.1 0.0 2.1
13:44 7.8 2.9 71 1005.0 18.3 NW 25.1 0.0 2.1
13:45 7.8 2.9 71 1004.8 19.0 SW 25.1 0.0 2.1
13:47 7.8 2.9 71 1004.8 18.3 W 23.5 0.0 2.1
13:48 7.9 3.0 71 1004.9 23.5 SW 30.4 0.0 2.1
13:49 7.9 3.0 71 1004.9 22.8 SW 30.4 0.0 2.1
13:50 7.9 3.0 71 1004.9 24.4 SW 30.4 0.0 2.1
13:51 7.9 2.8 70 1005.0 16.8 SW 30.4 0.0 2.1
13:52 7.9 2.8 70 1005.0 14.5 SW 30.4 0.0 2.1
13:53 7.9 2.8 70 1004.9 20.6 S 30.4 0.0 2.1
13:54 7.9 2.8 70 1004.8 17.4 SW 30.4 0.0 2.1
13:55 8.0 2.9 70 1004.8 19.7 NW 30.4 0.0 2.1
13:56 8.0 2.9 70 1004.7 15.2 NW 30.4 0.0 2.1
13:57 8.0 2.9 70 1004.9 18.3 S 30.4 0.0 2.1
13:58 8.0 2.9 70 1004.8 22.8 N 30.4 0.0 2.1
13:59 8.0 2.9 70 1004.8 20.6 W 24.4 0.0 2.1
14:00 8.1 3.0 70 1004.9 19.0 S 22.8 0.0 2.1
14:02 8.1 3.0 70 1004.9 21.3 SW 22.8 0.0 2.1
14:03 8.1 3.0 70 1004.8 14.5 SW 22.8 0.0 2.1
14:04 8.2 2.9 69 1004.8 20.6 SW 22.8 0.0 2.1
14:05 8.2 2.9 69 1004.9 22.1 SW 22.8 0.0 2.1
14:06 8.2 2.9 69 1004.9 20.6 S 22.8 0.0 2.1
14:07 8.3 3.0 69 1004.9 25.9 SW 25.9 0.0 2.1
14:08 8.3 3.0 69 1005.0 25.9 NNE 25.9 0.0 2.1
14:09 8.4 3.0 69 1004.7 21.3 SW 25.9 0.0 2.1
14:10 8.5 3.1 69 1004.9 19.0 S 25.9 0.0 2.1
14:11 8.5 3.1 69 1004.7 22.1 SW 25.9 0.0 2.1
14:12 8.5 3.1 69 1004.7 17.4 N 25.9 0.0 2.1
14:13 8.6 3.2 69 1004.8 20.6 SW 25.9 0.0 2.1
14:14 8.6 3.0 68 1004.7 26.6 NW 26.6 0.0 2.1
14:16 8.6 2.8 67 1004.7 19.0 SE 26.6 0.0 2.1
14:17 8.6 2.8 67 1004.7 16.8 SE 26.6 0.0 2.1
14:18 8.5 2.7 67 1004.7 19.0 SW 26.6 0.0 2.1
14:19 8.5 2.7 67 1004.7 18.3 NW 26.6 0.0 2.1
14:20 8.5 2.7 67 1004.5 18.3 W 26.6 0.0 2.1
14:21 8.5 2.7 67 1004.7 19.0 S 26.6 0.0 2.1
14:22 8.4 2.6 67 1004.8 16.8 SW 26.6 0.0 2.1
14:23 8.4 2.6 67 1004.7 25.1 SW 26.6 0.0 2.1
14:24 8.4 2.6 67 1004.4 23.5 N 26.6 0.0 2.1
14:25 8.4 2.6 67 1004.6 22.1 SW 25.1 0.0 2.1
14:26 8.5 2.7 67 1004.6 24.4 WSW 25.1 0.0 2.1
14:27 8.5 2.7 67 1004.6 20.6 S 25.1 0.0 2.1
14:29 8.5 2.9 68 1004.3 25.9 SW 25.9 0.0 2.1
14:30 8.6 3.0 68 1004.6 22.8 S 25.9 0.0 2.1
14:31 8.6 3.0 68 1004.4 30.4 S 30.4 0.0 2.1
14:32 8.6 3.0 68 1004.5 15.2 S 30.4 0.0 2.1
14:33 8.6 3.0 68 1004.5 20.6 SW 30.4 0.0 2.1
14:34 8.6 3.0 68 1004.5 20.6 SW 30.4 0.0 2.1
14:35 8.6 3.0 68 1004.5 25.1 SW 30.4 0.0 2.1
14:36 8.7 3.1 68 1004.6 21.3 SW 30.4 0.0 2.1
14:37 8.7 3.1 68 1004.4 15.2 S 30.4 0.0 2.1
14:38 8.8 3.2 68 1004.5 20.6 SW 30.4 0.0 2.1
14:39 8.8 3.2 68 1004.6 17.4 S 30.4 0.0 2.1
14:40 8.8 3.4 69 1004.6 14.5 SW 30.4 0.0 2.1
14:41 8.8 3.4 69 1004.5 17.4 SW 30.4 0.0 2.1
14:42 8.8 3.4 69 1004.5 19.0 SW 25.1 0.0 2.1
14:44 8.8 3.2 68 1004.7 26.6 S 26.6 0.0 2.1
14:45 8.8 3.0 67 1004.7 28.2 S 28.2 0.0 2.1
14:46 8.8 3.0 67 1004.7 25.9 NW 28.2 0.0 2.1
14:47 8.8 2.8 66 1004.6 29.8 SW 29.8 0.0 2.1
14:48 8.8 2.8 66 1004.6 22.1 W 29.8 0.0 2.1
14:49 8.8 2.8 66 1004.8 22.1 SW 29.8 0.0 2.1
14:50 8.7 2.7 66 1004.5 25.1 WSW 29.8 0.0 2.1
14:51 8.7 2.7 66 1004.6 20.6 SW 29.8 0.0 2.1
14:52 8.7 2.7 66 1004.5 19.0 SW 29.8 0.0 2.1
14:53 8.7 2.7 66 1004.5 24.4 SW 29.8 0.0 2.1
14:54 8.7 2.5 65 1004.5 20.6 S 29.8 0.0 2.1
14:55 8.6 2.6 66 1004.4 19.7 SW 29.8 0.0 2.1
14:57 8.6 2.6 66 1004.4 15.9 SW 25.1 0.0 2.1
14:58 8.6 2.6 66 1004.4 21.3 SW 25.1 0.0 2.1
14:59 8.6 2.6 66 1004.5 20.6 WNW 25.1 0.0 2.1
15:00 8.6 2.8 67 1004.5 30.4 SW 30.4 0.0 2.1
15:01 8.6 2.8 67 1004.5 28.2 SW 30.4 0.0 2.1
15:02 8.6 2.6 66 1004.4 21.3 SW 30.4 0.0 2.1
15:03 8.6 2.8 67 1004.2 17.4 SW 30.4 0.0 2.1
15:04 8.6 2.6 66 1004.4 30.4 S 30.4 0.0 2.1
15:05 8.6 2.6 66 1004.3 22.8 S 30.4 0.0 2.1
15:06 8.6 2.6 66 1004.3 21.3 SW 30.4 0.0 2.1
15:07 8.6 2.6 66 1004.4 25.1 S 30.4 0.0 2.1
15:08 8.6 2.6 66 1004.3 21.3 W 30.4 0.0 2.1
15:09 8.6 2.6 66 1004.6 25.9 S 30.4 0.0 2.1
15:10 8.7 2.7 66 1004.4 17.4 S 30.4 0.0 2.1
15:12 8.7 2.7 66 1004.1 19.7 SSW 30.4 0.0 2.1
15:13 8.6 2.6 66 1004.2 16.8 NW 30.4 0.0 2.1
15:14 8.6 2.4 65 1004.2 21.3 NW 25.9 0.0 2.1
15:15 8.6 2.4 65 1004.1 13.6 SW 25.9 0.0 2.1
15:16 8.6 2.4 65 1004.2 22.8 SW 27.3 0.0 2.1
15:17 8.6 2.4 65 1004.2 22.8 SW 27.3 0.0 2.1
15:18 8.6 2.4 65 1004.1 17.4 SW 27.3 0.0 2.1
15:19 8.6 2.4 65 1004.3 17.4 SW 27.3 0.0 2.1
15:20 8.6 2.4 65 1004.1 17.4 S 27.3 0.0 2.1
15:21 8.6 2.4 65 1004.2 22.1 S 27.3 0.0 2.1
15:22 8.6 2.4 65 1004.1 26.6 SW 27.3 0.0 2.1
15:23 8.5 2.3 65 1004.0 30.4 SW 30.4 0.0 2.1
15:24 8.6 2.4 65 1004.1 28.9 S 30.4 0.0 2.1
15:26 8.5 2.3 65 1004.3 24.4 WNW 30.4 0.0 2.1
15:27 8.5 2.3 65 1004.7 22.8 SW 30.4 0.0 2.1
15:28 8.5 2.1 64 1004.3 35.8 NW 41.2 0.0 2.1
15:29 8.5 2.1 64 1004.2 25.1 S 41.2 0.0 2.1
15:30 8.4 2.0 64 1004.2 25.1 SW 41.2 0.0 2.1
15:31 8.4 2.0 64 1004.0 21.3 SW 41.2 0.0 2.1
15:32 8.4 2.0 64 1004.1 22.8 SW 41.2 0.0 2.1
15:33 8.4 1.8 63 1004.2 32.0 SW 41.2 0.0 2.1
15:34 8.3 1.7 63 1003.9 21.3 S 41.2 0.0 2.1
15:35 8.3 1.7 63 1004.0 21.3 S 41.2 0.0 2.1
15:36 8.3 1.7 63 1004.2 20.6 NW 41.2 0.0 2.1
15:37 8.3 1.7 63 1003.9 29.8 SW 41.2 0.0 2.1
15:38 8.2 1.6 63 1004.2 26.6 SW 41.2 0.0 2.1
15:40 8.2 1.6 63 1004.3 26.6 SW 32.0 0.0 2.1
15:41 8.2 1.6 63 1004.3 28.2 SW 32.0 0.0 2.1
15:42 8.2 1.6 63 1004.4 22.1 SW 32.0 0.0 2.1
15:43 8.2 1.6 63 1004.3 27.3 SW 29.8 0.0 2.1
15:44 8.1 1.5 63 1004.2 23.5 N 29.8 0.0 2.1
15:45 8.1 1.5 63 1004.2 23.5 N 29.8 0.0 2.1
15:46 8.1 1.5 63 1004.0 27.3 SW 29.8 0.0 2.1
15:47 8.1 1.7 64 1004.1 25.9 SW 29.8 0.0 2.1
15:48 8.1 1.7 64 1004.0 19.0 WNW 29.8 0.0 2.1
15:49 8.1 1.7 64 1004.2 21.3 S 29.8 0.0 2.1
15:50 8.1 1.7 64 1004.2 16.8 SW 28.2 0.0 2.1
15:51 8.1 1.7 64 1003.9 25.1 SW 28.2 0.0 2.1
15:52 8.0 1.6 64 1004.1 25.9 SW 27.3 0.0 2.1
15:54 8.1 1.7 64 1004.1 25.9 NW 27.3 0.0 2.1
15:55 8.1 1.9 65 1004.0 20.6 SW 27.3 0.0 2.1
15:56 8.1 1.9 65 1003.9 24.4 SW 27.3 0.0 2.1
15:57 8.1 1.9 65 1003.9 22.1 SW 25.9 0.0 2.1
15:58 8.1 1.9 65 1003.9 17.4 SW 25.9 0.0 2.1
15:59 8.1 1.9 65 1004.0 22.8 S 25.9 0.0 2.1
16:00 8.1 1.9 65 1004.0 23.5 SW 25.9 0.0 2.1
16:01 8.1 1.9 65 1003.9 23.5 SW 25.9 0.0 2.1
16:02 8.1 2.1 66 1003.7 20.6 NW 25.9 0.0 2.1
16:03 8.1 1.9 65 1004.0 24.4 S 25.9 0.0 2.1
16:04 8.1 2.1 66 1003.8 26.6 SW 26.6 0.0 2.1
16:05 8.1 2.1 66 1003.7 19.7 NW 26.6 0.0 2.1
16:06 8.0 2.0 66 1003.9 21.3 S 26.6 0.0 2.1
16:07 8.0 2.0 66 1003.7 17.4 SW 26.6 0.0 2.1
16:09 7.9 1.9 66 1003.9 24.4 SW 28.2 0.0 2.1
16:10 7.9 1.9 66 1003.9 24.4 NW 28.2 0.0 2.1
16:11 7.9 1.9 66 1003.9 19.7 SW 28.2 0.0 2.1
16:12 7.8 1.6 65 1003.7 24.4 S 28.2 0.0 2.1
16:13 7.8 1.6 65 1004.0 26.6 WNW 28.2 0.0 2.1
16:14 7.8 1.6 65 1004.0 26.6 WNW 28.2 0.0 2.1
16:15 7.8 1.6 65 1004.0 23.5 SW 28.2 0.0 2.1
16:16 7.7 1.5 65 1004.0 20.6 S 28.2 0.0 2.1
16:17 7.7 1.5 65 1004.0 21.3 SW 28.2 0.0 2.1
16:18 7.7 1.5 65 1004.1 28.9 SW 28.9 0.0 2.1
16:19 7.6 1.4 65 1003.8 23.5 SW 28.9 0.0 2.1
16:20 7.6 1.4 65 1003.9 23.5 SW 28.9 0.0 2.1
16:21 7.5 1.6 66 1003.7 25.9 W 28.9 0.0 2.1
16:23 7.4 1.7 67 1004.0 29.8 SW 29.8 0.8 2.1
16:24 7.2 1.7 68 1004.1 22.8 SW 29.8 0.8 2.1
16:25 7.2 1.7 68 1003.8 17.4 WSW 29.8 0.8 2.1
16:26 7.2 1.7 68 1004.0 15.9 SW 29.8 0.8 2.1
16:27 7.1 1.8 69 1003.8 19.0 SW 29.8 0.0 2.1
16:28 7.1 1.8 69 1003.9 20.6 SW 29.8 0.0 2.1
16:29 7.0 1.9 70 1004.0 19.0 SW 29.8 0.0 2.1
16:30 7.0 1.9 70 1003.8 16.8 S 29.8 0.0 2.1
16:31 7.0 1.9 70 1004.0 15.9 SW 29.8 0.0 2.1
16:32 6.9 1.8 70 1003.8 18.3 SW 29.8 0.0 2.1
16:33 6.9 2.0 71 1003.9 15.2 SW 29.8 0.0 2.1
16:34 6.9 2.0 71 1003.9 13.0 SW 22.8 0.0 2.1
16:35 6.8 1.9 71 1003.9 14.5 SW 20.6 0.0 2.1
16:37 6.8 2.1 72 1003.8 17.4 SE 20.6 0.0 2.1
16:38 6.7 2.0 72 1003.7 13.6 S 19.0 0.0 2.1
16:39 6.7 2.0 72 1003.9 15.9 SW 19.0 0.0 2.1
16:40 6.8 2.1 72 1003.7 15.2 NW 19.0 0.0 2.1
16:41 6.7 2.0 72 1003.6 18.3 S 19.0 0.0 2.1
16:42 6.7 2.0 72 1003.7 19.7 NW 19.7 0.0 2.1
16:43 6.7 2.2 73 1003.7 13.6 SW 19.7 0.0 2.1
16:44 6.7 2.2 73 1003.7 13.0 S 19.7 0.0 2.1
16:45 6.7 2.2 73 1003.7 15.9 S 19.7 0.0 2.1
16:46 6.7 2.2 73 1003.7 15.9 SW 19.7 0.0 2.1
16:47 6.7 2.2 73 1003.8 20.6 S 20.6 0.0 2.1
16:48 6.7 2.2 73 1003.7 15.2 S 20.6 0.0 2.1
16:49 6.7 2.2 73 1003.7 13.0 S 20.6 0.0 2.1
16:51 6.7 2.2 73 1003.8 16.8 W 20.6 0.0 2.1
16:52 6.7 2.4 74 1003.9 20.6 SW 20.6 0.0 2.1
16:53 6.7 2.4 74 1003.8 16.8 SW 20.6 0.0 2.1
16:54 6.7 2.4 74 1003.7 19.0 SW 20.6 0.0 2.1
16:55 6.7 2.4 74 1003.7 16.8 SW 20.6 0.0 2.1
16:56 6.7 2.4 74 1003.8 14.5 SW 20.6 0.0 2.1
16:57 6.7 2.2 73 1003.7 19.0 NW 20.6 0.0 2.1
16:58 6.8 2.5 74 1003.7 14.5 SW 20.6 0.0 2.1
16:59 6.8 2.5 74 1003.7 16.8 SW 20.6 0.0 2.1
17:00 6.8 2.5 74 1003.6 14.5 SW 20.6 0.0 2.1
17:01 6.8 2.5 74 1003.7 14.5 SW 20.6 0.0 2.1
17:02 6.9 2.6 74 1003.4 14.5 S 21.3 0.0 2.1
17:03 6.9 2.6 74 1003.4 15.9 SW 21.3 0.0 2.1
17:05 7.0 2.7 74 1003.4 15.2 S 21.3 0.0 2.1
17:06 7.0 2.7 74 1003.2 15.9 S 21.3 0.0 2.1
17:07 7.0 2.7 74 1003.5 26.6 SW 26.6 0.0 2.1
17:08 7.1 2.8 74 1003.4 17.4 S 26.6 0.0 2.1
17:09 7.1 2.8 74 1003.3 22.1 SW 26.6 0.0 2.1
17:10 7.1 2.8 74 1003.2 24.4 S 26.6 0.0 2.1
17:11 7.2 2.9 74 1003.3 23.5 S 26.6 0.0 2.1
17:12 7.2 2.7 73 1003.3 22.8 S 26.6 0.0 2.1
17:13 7.2 2.9 74 1003.1 19.7 SW 26.6 0.0 2.1
17:14 7.3 2.8 73 1003.3 19.0 SW 26.6 0.0 2.1
17:15 7.3 2.8 73 1003.1 15.2 S 26.6 0.0 2.1
17:16 7.3 2.8 73 1003.2 19.7 SW 26.6 0.0 2.1
17:17 7.3 2.8 73 1003.1 13.6 SW 26.6 0.0 2.1
17:19 7.4 2.9 73 1003.2 33.6 S 33.6 0.0 2.1
17:20 7.4 2.9 73 1003.2 24.4 SW 33.6 0.0 2.1
17:21 7.5 3.0 73 1003.5 24.4 SW 33.6 0.0 2.1
17:22 7.5 3.0 73 1003.6 24.4 SW 33.6 0.0 2.1
17:23 7.5 3.0 73 1003.7 19.0 SW 33.6 0.0 2.1
17:24 7.6 3.1 73 1003.6 28.9 S 33.6 0.0 2.1
17:25 7.6 3.1 73 1003.6 29.8 SW 33.6 0.0 2.1
17:26 7.6 2.9 72 1003.6 30.4 SW 33.6 0.0 2.1
17:27 7.5 2.6 71 1003.5 25.1 SW 33.6 0.0 2.1
17:28 7.5 2.6 71 1003.6 25.1 SW 33.6 0.0 2.1
17:29 7.4 2.5 71 1003.4 22.8 S 33.6 0.0 2.1
17:30 7.4 2.5 71 1003.4 28.2 SW 30.4 0.0 2.2
17:31 7.3 2.4 71 1003.4 24.4 SW 30.4 0.8 2.2
17:33 7.2 2.3 71 1003.3 20.6 SW 30.4 0.8 2.2
17:34 7.1 2.2 71 1003.3 21.3 S 30.4 0.8 2.2
17:35 7.0 2.3 72 1003.3 23.5 S 30.4 0.8 2.2
17:36 6.9 2.2 72 1003.4 25.1 SSW 28.2 0.0 2.2
17:37 6.9 2.2 72 1003.1 22.8 SW 28.2 0.0 2.2
17:38 6.8 2.1 72 1003.3 19.7 SW 28.2 0.0 2.2
17:39 6.8 2.1 72 1003.2 17.4 SW 28.2 0.0 2.2
17:40 6.8 2.1 72 1003.3 19.7 SW 28.2 0.0 2.2
17:41 6.7 2.0 72 1003.2 16.8 W 25.1 0.0 2.2
17:42 6.7 2.0 72 1003.2 19.7 S 25.1 0.0 2.2
17:43 6.7 2.0 72 1003.3 15.2 SW 25.1 0.0 2.2
17:44 6.6 1.9 72 1003.1 14.5 S 25.1 0.0 2.2
17:45 6.6 1.9 72 1003.1 19.7 S 25.1 0.0 2.2
17:47 6.6 2.1 73 1003.2 16.8 SW 22.8 0.0 2.2
17:48 6.6 2.1 73 1003.1 17.4 SSW 21.3 0.0 2.2
17:49 6.6 2.1 73 1003.0 24.4 S 24.4 0.0 2.2
17:50 6.6 2.1 73 1003.1 20.6 NNE 24.4 0.0 2.2
17:51 6.6 2.1 73 1003.0 18.3 SW 24.4 0.0 2.2
17:52 6.6 2.1 73 1003.0 18.3 SW 24.4 0.0 2.2
17:53 6.6 2.1 73 1002.9 22.1 SW 24.4 0.0 2.2
17:54 6.6 2.1 73 1002.9 18.3 S 24.4 0.0 2.2
17:55 6.6 2.1 73 1002.9 12.1 SW 24.4 0.0 2.2
17:56 6.6 2.1 73 1003.0 15.9 S 24.4 0.0 2.2
17:57 6.6 2.1 73 1002.8 16.8 SW 24.4 0.0 2.2
17:58 6.6 2.1 73 1002.7 22.8 S 24.4 0.0 2.2
17:59 6.6 2.3 74 1002.8 21.3 SW 24.4 0.0 2.2
18:01 6.7 2.4 74 1002.9 20.6 SW 22.8 0.0 2.2
18:02 6.7 2.4 74 1002.7 22.1 SW 22.8 0.0 2.2
18:03 6.7 2.4 74 1002.9 19.7 S 22.8 0.0 2.2
18:04 6.8 2.5 74 1002.8 14.5 SW 25.9 0.0 2.2
18:05 6.8 2.5 74 1002.8 17.4 SW 25.9 0.0 2.2
18:06 6.8 2.5 74 1002.8 19.0 SW 25.9 0.0 2.2
18:07 6.8 2.5 74 1002.7 19.0 SW 25.9 0.0 2.2
18:08 6.8 2.5 74 1002.7 22.8 SW 25.9 0.0 2.2
18:09 6.9 2.6 74 1002.7 19.7 S 25.9 0.0 2.2
18:10 6.9 2.8 75 1002.7 19.0 SW 25.9 0.0 2.2
18:11 7.0 2.9 75 1002.7 21.3 SW 25.9 0.0 2.2
18:12 7.0 2.9 75 1002.4 26.6 SW 26.6 0.0 2.2
18:13 7.0 2.9 75 1002.6 21.3 SW 26.6 0.0 2.2
18:15 7.1 3.0 75 1002.6 26.6 S 26.6 0.0 2.2
18:16 7.2 3.1 75 1002.5 23.5 NW 26.6 0.0 2.2
18:17 7.2 3.1 75 1002.5 22.8 NNE 26.6 0.0 2.2
18:18 7.3 3.2 75 1002.6 17.4 SW 26.6 0.0 2.2
18:19 7.3 3.2 75 1002.5 22.8 SW 26.6 0.0 2.2
18:20 7.4 3.3 75 1002.4 18.3 WSW 26.6 0.0 2.2
18:21 7.4 3.3 75 1002.5 22.8 WSW 26.6 0.0 2.2
18:22 7.4 3.3 75 1002.6 23.5 S 26.6 0.0 2.2
18:23 7.5 3.4 75 1002.3 32.0 SW 32.0 0.0 2.2
18:24 7.5 3.2 74 1002.3 22.8 SW 32.0 0.0 2.2
18:25 7.5 3.2 74 1002.2 22.8 SW 32.0 0.0 2.2
18:26 7.6 3.3 74 1002.2 19.7 WSW 32.0 0.0 2.2
18:27 7.6 3.3 74 1002.1 21.3 NW 32.0 0.0 2.2
18:29 7.6 3.3 74 1002.1 19.0 WSW 32.0 0.0 2.2
18:30 7.7 3.4 74 1002.1 19.7 SW 32.0 0.0 2.2
18:31 7.7 3.4 74 1002.2 19.0 SSW 32.0 0.0 2.2
18:32 7.7 3.4 74 1002.1 21.3 S 32.0 0.0 2.2
18:33 7.8 3.5 74 1002.2 15.2 S 29.8 0.0 2.2
18:34 7.8 3.5 74 1002.2 15.2 S 29.8 0.0 2.2
18:35 7.8 3.5 74 1002.0 25.1 S 29.8 0.0 2.2
18:36 7.8 3.3 73 1001.9 29.8 SW 29.8 0.0 2.2
18:37 7.8 3.3 73 1002.0 25.9 SW 29.8 0.0 2.2
18:38 7.9 3.4 73 1001.9 27.3 S 29.8 0.0 2.2
18:39 7.9 3.4 73 1002.0 29.8 SW 29.8 0.0 2.2
18:40 7.9 3.4 73 1002.3 22.8 SW 29.8 0.0 2.2
18:41 7.9 3.4 73 1002.0 23.5 S 29.8 0.0 2.2
18:43 8.0 3.5 73 1001.9 23.5 SW 29.8 0.0 2.2
18:44 8.0 3.5 73 1001.9 27.3 WNW 29.8 0.0 2.2
18:45 8.0 3.5 73 1002.1 25.9 SW 29.8 0.0 2.2
18:46 8.1 3.6 73 1002.1 27.3 S 29.8 0.0 2.2
18:47 8.1 3.6 73 1002.0 32.0 SW 32.0 0.0 2.2
18:48 8.1 3.6 73 1001.9 32.0 SW 32.0 0.0 2.2
18:49 8.1 3.4 72 1002.1 23.5 NNW 32.0 0.0 2.2
18:50 8.2 3.5 72 1002.0 31.1 SW 32.0 0.0 2.2
18:51 8.2 3.5 72 1002.1 34.2 S 34.2 0.0 2.2
18:52 8.2 3.3 71 1001.9 38.7 SW 38.7 0.0 2.2
18:53 8.3 3.4 71 1001.7 34.9 SW 38.7 0.0 2.2
18:54 8.3 3.4 71 1001.8 15.9 SW 38.7 0.0 2.2
18:55 8.3 3.4 71 1001.7 28.9 SW 38.7 0.0 2.2
18:57 8.3 3.4 71 1001.8 26.6 SW 38.7 0.0 2.2
18:58 8.3 3.4 71 1001.7 18.3 SW 38.7 0.0 2.2
18:59 8.3 3.4 71 1001.8 24.4 S 38.7 0.0 2.2
19:00 8.3 3.4 71 1001.7 19.7 SW 38.7 0.0 2.2
19:01 8.3 3.4 71 1001.7 27.3 SW 38.7 0.0 2.2
19:02 8.2 3.3 71 1001.6 25.9 S 34.9 0.0 2.2
19:03 8.3 3.4 71 1001.5 25.9 SW 31.1 0.0 2.2
19:04 8.3 3.4 71 1001.6 20.6 WSW 31.1 0.0 2.2
19:05 8.3 3.4 71 1001.7 25.1 NW 29.8 0.0 2.2
19:06 8.2 3.3 71 1001.7 30.4 SW 30.4 0.0 2.2
19:07 8.3 3.4 71 1001.5 25.1 SW 30.4 0.0 2.2
19:08 8.3 3.4 71 1001.6 19.0 SW 30.4 0.0 2.2
19:09 8.2 3.3 71 1001.8 27.3 SW 30.4 0.0 2.2
19:10 8.3 3.4 71 1001.7 32.0 SW 32.0 0.0 2.2
19:11 8.3 3.4 71 1001.6 29.8 S 32.0 0.0 2.2
19:13 8.3 3.6 72 1001.7 22.1 SSW 32.0 0.0 2.2
19:14 8.3 3.6 72 1001.7 24.4 S 32.0 0.0 2.2
19:15 8.2 3.5 72 1001.5 26.6 S 32.0 0.0 2.2
19:16 8.2 3.5 72 1001.6 25.1 SW 32.0 0.0 2.2
19:17 8.2 3.5 72 1001.6 25.1 SW 32.0 0.0 2.2
19:18 8.1 3.4 72 1001.6 22.8 N 32.0 0.0 2.2
19:19 8.0 3.3 72 1001.6 23.5 N 32.0 0.0 2.2
19:20 8.0 3.5 73 1001.6 22.1 W 32.0 0.0 2.2
19:21 8.0 3.5 73 1001.4 23.5 SW 29.8 0.0 2.2
19:22 7.9 3.4 73 1001.5 25.1 S 26.6 0.0 2.2
19:23 7.8 3.3 73 1001.5 23.5 S 26.6 0.0 2.2
19:24 7.8 3.3 73 1001.5 19.0 SW 26.6 0.0 2.2
19:26 7.7 3.2 73 1001.5 25.1 S 26.6 0.0 2.2
19:27 7.7 3.2 73 1001.3 28.9 SW 28.9 0.0 2.2
19:28 7.7 3.2 73 1001.2 21.3 S 28.9 0.0 2.2
19:29 7.7 3.2 73 1001.2 20.6 SW 28.9 0.0 2.2
19:30 7.7 3.2 73 1001.1 25.1 SW 28.9 0.0 2.2
19:31 7.7 3.2 73 1001.2 23.5 S 28.9 0.0 2.2
19:32 7.7 3.4 74 1001.3 29.8 SW 29.8 0.0 2.2
19:33 7.7 3.4 74 1001.2 24.4 NW 29.8 0.0 2.2
19:34 7.7 3.4 74 1001.1 22.1 WNW 29.8 0.0 2.2
19:35 7.7 3.4 74 1001.3 30.4 S 30.4 0.0 2.2
19:36 7.8 3.5 74 1001.5 25.9 S 30.4 0.8 2.3
19:37 7.8 3.5 74 1001.2 22.1 S 30.4 0.8 2.3
19:38 7.8 3.5 74 1001.2 25.9 N 30.4 1.5 2.3
19:40 7.8 3.6 75 1001.2 25.9 SW 30.4 1.5 2.3
19:41 7.8 3.6 75 1001.0 28.2 SW 30.4 0.8 2.3
19:42 7.8 3.6 75 1001.2 25.1 SW 30.4 0.8 2.3
19:43 7.8 3.6 75 1001.2 23.5 SW 30.4 0.0 2.3
19:44 7.8 3.6 75 1001.0 20.6 SW 30.4 0.0 2.3
19:45 7.8 3.6 75 1001.0 20.6 SW 30.4 0.0 2.3
19:46 7.8 3.6 75 1000.9 34.2 S 34.2 0.0 2.3
19:47 7.8 3.8 76 1000.9 24.4 WSW 34.2 0.0 2.3
19:48 7.8 3.8 76 1000.9 19.7 SW 34.2 0.0 2.3
19:49 7.8 3.8 76 1001.0 28.2 SW 34.2 0.0 2.3
19:50 7.9 3.9 76 1000.8 32.7 SW 34.2 0.8 2.4
19:51 7.8 3.8 76 1000.8 19.0 SW 34.2 0.8 2.4
19:52 7.9 3.9 76 1000.9 18.3 SW 34.2 0.8 2.4
19:54 7.9 3.9 76 1000.9 22.8 SW 34.2 0.8 2.4
19:55 7.9 3.9 76 1000.8 19.0 SW 34.2 0.0 2.4
19:56 8.0 4.0 76 1000.3 25.1 WSW 34.2 0.0 2.4
19:57 8.0 4.0 76 1000.6 27.3 S 32.7 0.0 2.4
19:58 8.0 4.0 76 1000.6 24.4 SW 32.7 0.0 2.4
19:59 8.0 4.0 76 1000.6 25.1 SW 32.7 0.0 2.4
20:00 8.1 4.1 76 1000.5 30.4 NNE 32.7 0.0 2.4
20:01 8.1 4.1 76 1000.6 30.4 NNE 30.4 0.0 2.4
20:02 8.1 4.1 76 1000.6 25.1 S 30.4 0.0 2.4
20:03 8.2 4.2 76 1000.6 25.1 S 30.4 0.0 2.4
20:04 8.2 4.2 76 1000.6 23.5 SW 30.4 0.0 2.4
20:05 8.2 4.2 76 1000.6 25.1 WSW 30.4 0.0 2.4
20:06 8.3 4.3 76 1000.5 28.9 S 30.4 0.0 2.4
20:07 8.3 4.3 76 1000.4 33.6 SW 33.6 0.0 2.4
20:09 8.3 4.3 76 1000.5 28.9 SW 33.6 0.0 2.4
20:10 8.3 4.3 76 1000.4 22.8 SW 33.6 0.0 2.4
20:11 8.4 4.4 76 1000.3 22.1 SW 33.6 0.0 2.4
20:12 8.4 4.2 75 1000.7 35.8 S 43.4 0.0 2.4
20:13 8.4 4.2 75 1000.7 35.8 S 43.4 0.0 2.4
20:14 8.4 4.2 75 1001.0 40.3 SW 43.4 0.0 2.4
20:15 8.4 4.0 74 1000.8 32.0 SW 43.4 0.0 2.4
20:16 8.4 4.0 74 1000.9 34.9 SW 43.4 0.0 2.4
20:17 8.3 3.7 73 1000.9 30.4 S 43.4 0.0 2.4
20:18 8.2 3.7 73 1001.0 36.5 WSW 43.4 0.8 2.5
20:19 8.1 3.6 73 1000.8 42.5 SW 43.4 3.0 2.6
20:20 8.0 3.5 73 1001.0 30.4 SW 43.4 4.5 2.8
20:21 7.8 3.5 74 1000.2 28.9 WNW 43.4 5.3 2.9
20:23 7.5 3.2 74 1000.3 29.8 SW 42.5 6.0 3.0
20:24 7.3 3.0 74 1000.4 25.9 SW 42.5 3.8 3.0
20:25 7.2 2.9 74 1000.5 23.5 S 42.5 2.3 3.0
20:26 7.2 2.9 74 1000.4 24.4 SW 42.5 1.5 3.0
20:27 7.1 3.0 75 1000.3 22.8 SW 42.5 0.8 3.0
20:28 7.0 2.9 75 1000.6 30.4 SW 42.5 0.0 3.0
20:29 7.0 2.9 75 1000.5 24.4 SW 42.5 0.0 3.0
20:30 6.9 3.0 76 1000.3 22.8 SW 30.4 0.0 3.0
20:31 6.9 3.0 76 1000.4 22.1 SW 30.4 0.0 3.0
20:32 6.9 3.0 76 1000.2 30.4 SW 30.4 0.0 3.0
20:33 6.8 3.1 77 1000.3 26.6 SW 30.4 0.0 3.0
20:34 6.8 3.1 77 1000.5 25.1 S 30.4 0.0 3.0
20:35 6.9 3.3 78 1000.1 31.1 S 31.1 0.0 3.0
20:37 7.0 3.6 79 1000.2 21.3 S 31.1 0.0 3.0
20:38 7.1 3.9 80 1000.4 22.8 SW 31.1 0.0 3.0
20:39 7.1 3.9 80 1000.2 25.1 SW 31.1 0.0 3.0
20:40 7.2 4.0 80 1000.2 29.8 SW 31.1 0.0 3.0
20:41 7.2 4.0 80 1000.0 21.3 SW 31.1 0.0 3.0
20:42 7.3 4.1 80 1000.2 19.0 S 31.1 0.0 3.0
20:43 7.3 4.3 81 1000.1 24.4 SW 31.1 0.0 3.0
20:44 7.4 4.4 81 1000.2 22.8 SW 31.1 0.0 3.0
20:45 7.4 4.4 81 1000.1 27.3 S 31.1 0.8 3.0
20:46 7.5 4.5 81 1000.1 33.6 S 33.6 0.8 3.0
20:47 7.5 4.5 81 1000.2 26.6 NW 33.6 1.5 3.1
20:48 7.6 4.6 81 1000.1 26.6 NW 33.6 2.3 3.1
20:49 7.6 4.6 81 1000.6 26.6 SW 33.6 2.3 3.3
20:51 7.7 4.6 81 1000.1 37.4 S 37.4 4.5 3.4
20:52 7.7 4.6 81 1000.3 43.4 SW 43.4 3.8 3.4
20:53 7.7 4.6 81 1000.2 43.4 N 43.4 3.0 3.4
20:54 7.7 4.5 80 1000.4 29.8 WNW 43.4 3.0 3.4
20:55 7.7 4.5 80 1000.4 34.9 SW 43.4 1.5 3.4
20:56 7.7 4.5 80 1000.2 27.3 S 43.4 0.0 3.4
20:57 7.7 4.3 79 1000.3 25.9 NW 43.4 0.0 3.4
20:58 7.7 4.3 79 1000.4 27.3 SW 43.4 0.0 3.4
20:59 7.6 4.2 79 1000.5 23.5 SW 43.4 0.0 3.4
21:00 7.6 4.2 79 1000.2 32.0 SW 43.4 0.0 3.4
21:01 7.6 4.2 79 1000.3 32.0 SW 43.4 0.0 3.4
21:02 7.6 4.0 78 1000.3 36.5 S 43.4 0.8 3.5
21:03 7.6 3.8 77 1000.2 32.7 SW 43.4 0.8 3.5
21:04 7.6 3.8 77 1000.5 34.2 SW 36.5 0.8 3.5
21:05 7.6 3.8 77 1000.3 24.4 SW 36.5 0.8 3.5
21:07 7.6 3.8 77 1000.5 28.2 SW 36.5 0.0 3.5
21:08 7.7 3.9 77 1000.3 33.6 SW 36.5 0.0 3.5
21:09 7.7 3.9 77 1000.5 33.6 NW 36.5 0.0 3.5
21:10 7.7 3.9 77 1000.6 34.9 SW 36.5 0.0 3.5
21:11 7.7 3.9 77 1000.4 25.1 SE 36.5 0.0 3.5
21:12 7.7 3.9 77 1000.7 30.4 N 39.6 0.0 3.5
21:13 7.7 3.9 77 1000.7 30.4 N 39.6 0.0 3.5
21:14 7.7 3.9 77 1000.2 30.4 NNW 39.6 0.0 3.5
21:15 7.7 3.9 77 1000.7 28.9 SW 39.6 0.0 3.5
21:16 7.7 3.9 77 1000.4 34.9 WSW 39.6 0.0 3.5
21:17 7.7 3.9 77 1000.5 25.9 NW 39.6 0.0 3.5
21:18 7.6 3.8 77 1000.5 25.1 SW 39.6 0.0 3.5
21:19 7.6 3.8 77 1000.7 28.2 SW 39.6 0.0 3.5
21:20 7.6 3.8 77 1000.7 29.8 SW 39.6 0.0 3.5
21:22 7.6 3.8 77 1000.7 28.9 SW 35.8 0.0 3.5
21:23 7.6 4.0 78 1000.6 24.4 SW 35.8 0.0 3.5
21:24 7.6 4.0 78 1000.4 27.3 WNW 35.8 0.0 3.5
21:25 7.6 4.0 78 1000.6 27.3 SW 35.8 0.0 3.5
21:26 7.6 4.0 78 1000.6 25.1 NW 35.8 0.0 3.5
21:27 7.6 4.0 78 1000.7 28.9 WSW 35.8 0.0 3.5
21:28 7.6 4.0 78 1000.7 26.6 SW 35.8 0.0 3.5
21:29 7.6 4.2 79 1000.7 29.8 SW 35.8 0.0 3.5
21:30 7.7 4.3 79 1000.7 32.7 S 35.8 0.0 3.5
21:31 7.7 4.3 79 1000.7 29.8 WNW 35.8 0.0 3.5
21:32 7.8 4.4 79 1000.7 26.6 SW 32.7 0.0 3.5
21:33 7.8 4.4 79 1000.6 22.8 NW 32.7 0.0 3.5
21:34 7.8 4.4 79 1000.6 28.2 SW 32.7 0.0 3.5
21:36 8.0 4.6 79 1000.8 27.3 SW 32.7 0.0 3.5
21:37 8.0 4.8 80 1000.6 24.4 NNW 32.7 0.0 3.5
21:38 8.0 4.8 80 1000.9 22.1 SW 32.7 0.0 3.5
21:39 8.1 4.7 79 1000.7 26.6 NW 32.7 0.0 3.5
21:40 8.1 4.9 80 1000.8 25.9 SW 29.8 0.0 3.5
21:41 8.1 4.9 80 1000.8 25.9 SW 29.8 0.0 3.5
21:42 8.2 4.8 79 1000.5 27.3 W 29.8 0.0 3.5
21:43 8.2 4.8 79 1000.8 28.9 WNW 29.8 0.0 3.5
21:44 8.2 4.8 79 1000.7 33.6 SW 33.6 0.0 3.5
21:45 8.3 4.9 79 1000.5 33.6 SW 33.6 0.0 3.5
21:46 8.4 5.0 79 1000.6 26.6 SW 35.8 0.0 3.5
21:47 8.4 5.0 79 1000.8 26.6 SW 35.8 0.0 3.5
21:48 8.5 5.1 79 1001.0 22.8 SW 35.8 0.0 3.5
21:50 8.5 5.1 79 1000.8 31.1 N 35.8 0.0 3.5
21:51 8.5 5.1 79 1000.6 22.8 SW 35.8 0.0 3.5
21:52 8.6 5.2 79 1000.7 29.8 SW 35.8 0.0 3.5
21:53 8.6 5.2 79 1000.8 22.8 SW 35.8 0.0 3.5
21:54 8.6 5.2 79 1000.7 28.2 SW 35.8 0.0 3.5
21:55 8.6 5.0 78 1000.8 19.7 SW 35.8 0.0 3.5
21:56 8.6 5.2 79 1000.7 22.1 SW 33.6 0.0 3.5
21:57 8.7 5.1 78 1000.7 21.3 SSW 33.6 0.0 3.5
21:58 8.7 5.3 79 1001.1 22.1 SW 33.6 0.0 3.5
21:59 8.7 5.3 79 1001.2 22.8 SW 33.6 0.0 3.5
22:00 8.7 5.3 79 1001.0 25.1 SW 33.6 0.0 3.5
22:01 8.7 5.3 79 1000.9 25.1 SW 33.6 0.0 3.5
22:02 8.7 5.1 78 1001.2 34.2 SW 34.2 0.0 3.5
22:03 8.7 5.1 78 1001.2 37.4 SSW 37.4 0.0 3.5
22:04 8.6 4.8 77 1001.2 23.5 SW 37.4 0.0 3.5
22:06 8.5 4.5 76 1001.4 19.7 SW 37.4 0.0 3.5
22:07 8.5 4.5 76 1001.2 23.5 S 37.4 0.0 3.5
22:08 8.4 4.4 76 1001.2 20.6 SW 37.4 0.0 3.5
22:09 8.4 4.4 76 1001.2 28.2 SW 37.4 0.0 3.5
22:10 8.3 4.3 76 1001.2 19.0 WNW 37.4 0.0 3.5
22:11 8.3 4.3 76 1001.1 27.3 SW 37.4 0.0 3.5
22:12 8.3 4.1 75 1001.0 25.1 SW 37.4 0.0 3.5
22:13 8.2 4.0 75 1001.1 24.4 SW 37.4 0.0 3.5
22:14 8.2 4.0 75 1001.0 28.9 SW 32.0 0.0 3.5
22:15 8.2 4.0 75 1001.2 20.6 SW 32.0 0.0 3.5
22:16 8.2 4.0 75 1001.1 25.9 SW 28.9 0.0 3.5
22:17 8.1 3.9 75 1001.2 28.9 SW 28.9 0.0 3.5
22:18 8.2 4.0 75 1000.9 25.9 SW 35.8 0.0 3.5
22:20 8.1 3.9 75 1001.0 22.8 SW 35.8 0.0 3.5
22:21 8.1 3.9 75 1001.2 20.6 SW 35.8 0.0 3.5
22:22 8.1 3.9 75 1001.2 25.9 WSW 35.8 0.0 3.5
22:23 8.1 3.9 75 1001.2 25.9 SW 35.8 0.0 3.5
22:24 8.1 4.1 76 1001.4 22.8 S 35.8 0.0 3.5
22:25 8.1 4.1 76 1001.4 22.8 S 35.8 0.0 3.5
22:26 8.1 4.1 76 1001.2 23.5 SW 35.8 0.0 3.5
22:27 8.2 4.2 76 1001.2 26.6 SW 35.8 0.0 3.5
22:28 8.2 4.2 76 1001.2 21.3 S 26.6 0.0 3.5
22:29 8.2 4.2 76 1001.2 23.5 SW 26.6 0.0 3.5
22:30 8.2 4.4 77 1001.3 24.4 SW 26.6 0.0 3.5
22:31 8.2 4.4 77 1001.3 24.4 SW 26.6 0.0 3.5
22:32 8.2 4.4 77 1001.1 21.3 SW 26.6 0.0 3.5
22:34 8.3 4.5 77 1001.2 28.9 SW 28.9 0.0 3.5
22:35 8.3 4.5 77 1001.2 26.6 SW 28.9 0.0 3.5
22:36 8.3 4.5 77 1001.1 24.4 WSW 28.9 0.0 3.5
22:37 8.3 4.5 77 1001.3 25.1 SW 28.9 0.0 3.5
22:38 8.4 4.6 77 1001.2 17.4 S 28.9 0.0 3.5
22:39 8.4 4.6 77 1001.2 22.8 SW 28.9 0.0 3.5
22:40 8.4 4.6 77 1001.4 20.6 NW 28.9 0.0 3.5
22:41 8.4 4.6 77 1001.2 19.7 SW 28.9 0.0 3.5
22:42 8.4 4.6 77 1001.4 24.4 S 28.9 0.0 3.5
22:43 8.5 4.7 77 1001.2 25.9 N 28.9 0.0 3.5
22:44 8.5 4.7 77 1001.3 28.2 W 28.9 0.0 3.5
22:45 8.5 4.7 77 1001.4 19.7 SW 28.2 0.0 3.5
22:46 8.5 4.7 77 1001.1 22.8 SW 28.2 0.0 3.5
22:48 8.6 4.6 76 1001.6 21.3 SW 28.2 0.0 3.5
22:49 8.6 4.6 76 1001.4 25.9 SW 28.2 0.0 3.5
22:50 8.6 4.6 76 1001.5 22.8 SW 28.2 0.0 3.5
22:51 8.6 4.6 76 1001.7 30.4 SW 30.4 0.0 3.5
22:52 8.7 4.7 76 1001.6 19.7 SW 30.4 0.0 3.5
22:53 8.7 4.7 76 1001.6 19.7 SW 30.4 0.0 3.5
22:54 8.7 4.7 76 1001.6 24.4 SW 30.4 0.0 3.5
22:55 8.7 4.7 76 1001.6 33.6 SW 33.6 0.0 3.5
22:56 8.7 4.7 76 1001.7 23.5 SW 33.6 0.0 3.5
22:57 8.7 4.7 76 1001.5 27.3 SW 33.6 0.0 3.5
22:58 8.7 4.5 75 1001.7 29.8 S 33.6 0.0 3.5
22:59 8.7 4.5 75 1001.6 23.5 SW 33.6 0.0 3.5
23:00 8.7 4.5 75 1001.5 22.8 SW 33.6 0.0 3.5
23:02 8.7 4.5 75 1001.8 25.1 SW 33.6 0.0 3.5
23:03 8.7 4.5 75 1002.0 21.3 NNE 33.6 0.0 3.5
23:04 8.8 4.6 75 1001.7 24.4 SW 33.6 0.0 3.5
23:05 8.8 4.8 76 1001.7 25.1 SW 30.4 0.0 3.5
23:06 8.8 4.8 76 1001.7 19.0 SW 30.4 0.0 3.5
23:07 8.8 4.8 76 1002.0 22.8 WSW 30.4 0.0 3.5
23:08 8.8 4.8 76 1001.9 32.7 SW 32.7 0.0 3.5
23:09 8.8 4.8 76 1001.9 32.7 SW 32.7 0.0 3.5
23:10 8.8 4.8 76 1001.8 25.1 NW 32.7 0.0 3.5
23:11 8.9 4.9 76 1001.8 21.3 NW 32.7 0.0 3.5
23:12 8.9 4.9 76 1002.0 21.3 WSW 32.7 0.0 3.5
23:13 8.9 4.9 76 1002.1 27.3 SW 32.7 0.0 3.5
23:14 8.9 4.9 76 1002.1 19.0 WSW 32.7 0.0 3.5
23:15 8.9 4.9 76 1002.0 19.7 WNW 32.7 0.0 3.5
23:16 9.0 5.0 76 1002.1 21.3 SW 32.7 0.0 3.5
23:18 9.0 5.0 76 1002.0 23.5 NNW 32.7 0.0 3.5
23:19 9.0 5.0 76 1002.1 19.7 NNW 27.3 0.0 3.5
23:20 9.0 5.0 76 1002.1 35.8 SW 35.8 0.0 3.5
23:21 9.0 5.0 76 1001.9 28.9 NW 35.8 0.0 3.5
23:22 9.1 5.1 76 1002.1 26.6 NW 35.8 0.0 3.5
23:23 9.1 5.1 76 1002.0 17.4 WNW 35.8 0.0 3.5
23:24 9.1 5.1 76 1002.0 25.1 SW 35.8 0.0 3.5
23:25 9.1 5.1 76 1002.0 27.3 SW 35.8 0.0 3.5
23:26 9.2 5.2 76 1002.2 22.8 NW 35.8 0.0 3.5
23:27 9.2 5.2 76 1002.0 25.1 SW 35.8 0.0 3.5
23:28 9.2 5.0 75 1002.2 30.4 S 35.8 0.0 3.5
23:29 9.2 5.0 75 1002.2 22.8 NW 35.8 0.0 3.5
23:30 9.3 5.1 75 1002.0 22.8 NW 35.8 0.0 3.5
23:32 9.3 5.3 76 1002.0 28.2 WSW 30.4 0.0 3.5
23:33 9.3 5.3 76 1001.9 16.8 N 30.4 0.0 3.5
23:34 9.3 5.3 76 1001.9 19.7 S 30.4 0.0 3.5
23:35 9.3 5.3 76 1002.2 25.1 W 30.4 0.0 3.5
23:36 9.3 5.3 76 1002.1 28.9 WNW 30.4 0.0 3.5
23:37 9.3 5.3 76 1002.1 28.9 WNW 30.4 0.0 3.5
23:38 9.4 5.4 76 1002.2 23.5 SW 30.4 0.0 3.5
23:39 9.4 5.4 76 1002.3 29.8 SW 29.8 0.0 3.5
23:40 9.4 5.4 76 1002.3 17.4 SW 29.8 0.0 3.5
23:41 9.4 5.4 76 1002.2 26.6 SW 29.8 0.0 3.5
23:42 9.4 5.4 76 1002.2 32.7 S 33.6 0.0 3.5
23:43 9.4 5.4 76 1002.2 29.8 SW 33.6 0.0 3.5
23:44 9.4 5.4 76 1002.3 25.1 SW 33.6 0.0 3.5
23:45 9.6 5.6 76 1002.2 16.8 SW 33.6 0.0 3.5
23:47 9.5 5.5 76 1002.2 25.9 SW 33.6 0.0 3.5
23:48 9.4 5.4 76 1002.2 29.8 WNW 33.6 0.0 3.5
23:49 9.4 5.4 76 1002.3 21.3 SW 33.6 0.0 3.5
23:50 9.5 5.5 76 1002.2 24.4 SW 33.6 0.0 3.5
23:51 9.5 5.5 76 1002.2 26.6 SW 33.6 0.0 3.5
23:52 9.5 5.5 76 1002.2 25.1 S 32.7 0.0 3.5
23:53 9.5 5.5 76 1002.2 22.1 NW 29.8 0.0 3.5
23:54 9.5 5.5 76 1002.4 25.1 NW 29.8 0.0 3.5
23:55 9.5 5.5 76 1002.3 25.1 NW 29.8 0.0 3.5
23:56 9.5 5.5 76 1002.4 26.6 SW 29.8 0.0 3.5
23:57 9.5 5.5 76 1002.3 13.6 SW 29.8 0.0 3.5
23:58 9.5 5.5 76 1002.3 15.9 SW 29.8 0.0 3.5
23:59 9.5 5.5 76 1002.4 14.5 W 29.8 0.0 3.5

 

 

UK - WEATHER STATION TOPSITES - UK World Weather Websites

Copyright © Carnkie Weather 2009 - 2020.